Osage River (Missouri), Saint Thomas (06926510)

StateMissouriLatestUnknown (29900 cfs)
RiverOsage RiverRatingObservedEstimated
Updated2026-05-10 8:45 (43 minutes ago)Flood - The river is flooding. Obstacles can be treacherous or deadly. The river should be avoided at this stage for casual trips and definitely for the inexperienced. Trips should be attempted only with protective gear and equipment.Flood(none)(none)
Discharge29900 cfs (median: 17400 cfs)High - The river is high and potentially dangerous, especially for the young and / or inexperienced. Normal stream obstacles are sometimes difficult to navigate. Extended distances can be attempted, but canoe travel may not be advisable.High(none)(none)
Height11.78 feetGood - Conditions are ideal for a canoe or kayak. Boats typically will drag on fewer than one-quarter of riffles, if at all, and portages are unnecessary or rare. Normal float lengths can be attempted without a problem.Good(none)(none)
TrendRising (falling over 24 hours)Low - River is low but can still be floated. Some riffles are okay but most come with significant dragging and might need a portage. Float lengths should be reduced to accommodate low flow, dragging, and portages.Low(none)(none)
USGSExternal icon USGS Site (External icon Duck Duck Go Maps)Poor - River is too low to float comfortably. Most or all riffles will drag or must be portaged and some obstacles (such as slick shelf rock) cause undue problems. Avoid the river at this stage for casual paddling trips.Poor(none)(none)

Trending Data

Plot Image

Trips for Osage River (Missouri), Saint Thomas (06926510)

DateStartEndDistanceConditionDischargeHeightFishingDetails

A total of 0 rows are displayed.

Condition Descriptions

Fishing Conditions

Fish Species

Notes

Classic Trip List

The classic River Trips application is still available for use. It is updated with the new system using a data retrofit. It is no longer maintained. The original River Trips application is no longer updated (as of 1 Dec 2016) but can be checked for errors or for the condition of the data before it was converted to the new system.

Gauge Data Table

ObservationHeightDischargeMaximum
Discharge
Minimum
Discharge
Mean
Discharge
P05P10P20P25P50
(Median)
P75P80P90P95
2026-05-10 08:45 11.78 29900 54600 (2009) 697 (2005) 21300 932 1490 2240 3000 17400 36400 38800 47900 52600
2026-05-10 07:45 11.76 29800 54600 (2009) 697 (2005) 21300 932 1490 2240 3000 17400 36400 38800 47900 52600
2026-05-10 06:45 11.68 29500 54600 (2009) 697 (2005) 21300 932 1490 2240 3000 17400 36400 38800 47900 52600
2026-05-10 05:45 11.53 29000 54600 (2009) 697 (2005) 21300 932 1490 2240 3000 17400 36400 38800 47900 52600
2026-05-10 04:45 11.42 28600 54600 (2009) 697 (2005) 21300 932 1490 2240 3000 17400 36400 38800 47900 52600
2026-05-10 03:45 11.32 28200 54600 (2009) 697 (2005) 21300 932 1490 2240 3000 17400 36400 38800 47900 52600
2026-05-10 02:45 11.16 27600 54600 (2009) 697 (2005) 21300 932 1490 2240 3000 17400 36400 38800 47900 52600
2026-05-10 01:45 11.05 27200 54600 (2009) 697 (2005) 21300 932 1490 2240 3000 17400 36400 38800 47900 52600
2026-05-10 00:45 10.96 26900 54600 (2009) 697 (2005) 21300 932 1490 2240 3000 17400 36400 38800 47900 52600
2026-05-09 23:45 10.96 26900 54600 (2009) 697 (2005) 21300 932 1490 2240 3000 17400 36400 38800 47900 52600
2026-05-09 22:45 11.01 27100 61400 (2009) 718 (2005) 23200 1040 1720 2420 4200 22900 35900 39400 53800 59200
2026-05-09 21:45 11.08 27300 61400 (2009) 718 (2005) 23200 1040 1720 2420 4200 22900 35900 39400 53800 59200
2026-05-09 20:45 11.21 27800 61400 (2009) 718 (2005) 23200 1040 1720 2420 4200 22900 35900 39400 53800 59200
2026-05-09 19:45 11.34 28300 61400 (2009) 718 (2005) 23200 1040 1720 2420 4200 22900 35900 39400 53800 59200
2026-05-09 18:45 11.48 28800 61400 (2009) 718 (2005) 23200 1040 1720 2420 4200 22900 35900 39400 53800 59200
2026-05-09 17:45 11.63 29400 61400 (2009) 718 (2005) 23200 1040 1720 2420 4200 22900 35900 39400 53800 59200
2026-05-09 16:45 11.81 30000 61400 (2009) 718 (2005) 23200 1040 1720 2420 4200 22900 35900 39400 53800 59200
2026-05-09 15:45 11.96 30600 61400 (2009) 718 (2005) 23200 1040 1720 2420 4200 22900 35900 39400 53800 59200
2026-05-09 14:45 12.18 31400 61400 (2009) 718 (2005) 23200 1040 1720 2420 4200 22900 35900 39400 53800 59200
2026-05-09 13:45 12.39 32300 61400 (2009) 718 (2005) 23200 1040 1720 2420 4200 22900 35900 39400 53800 59200
2026-05-09 12:45 12.57 32900 61400 (2009) 718 (2005) 23200 1040 1720 2420 4200 22900 35900 39400 53800 59200
2026-05-09 11:45 12.75 33700 61400 (2009) 718 (2005) 23200 1040 1720 2420 4200 22900 35900 39400 53800 59200
2026-05-09 10:45 12.90 34200 61400 (2009) 718 (2005) 23200 1040 1720 2420 4200 22900 35900 39400 53800 59200
2026-05-09 09:45 13.05 34900 61400 (2009) 718 (2005) 23200 1040 1720 2420 4200 22900 35900 39400 53800 59200
2026-05-09 08:45 13.16 35300 61400 (2009) 718 (2005) 23200 1040 1720 2420 4200 22900 35900 39400 53800 59200
2026-05-09 07:45 13.32 35900 61400 (2009) 718 (2005) 23200 1040 1720 2420 4200 22900 35900 39400 53800 59200
2026-05-09 06:45 13.47 36600 61400 (2009) 718 (2005) 23200 1040 1720 2420 4200 22900 35900 39400 53800 59200
2026-05-09 05:45 13.54 36800 61400 (2009) 718 (2005) 23200 1040 1720 2420 4200 22900 35900 39400 53800 59200
2026-05-09 04:45 13.64 37300 61400 (2009) 718 (2005) 23200 1040 1720 2420 4200 22900 35900 39400 53800 59200
2026-05-09 03:45 13.67 37400 61400 (2009) 718 (2005) 23200 1040 1720 2420 4200 22900 35900 39400 53800 59200
2026-05-09 02:45 13.67 37400 61400 (2009) 718 (2005) 23200 1040 1720 2420 4200 22900 35900 39400 53800 59200
2026-05-09 01:45 13.63 37200 61400 (2009) 718 (2005) 23200 1040 1720 2420 4200 22900 35900 39400 53800 59200
2026-05-09 00:45 13.64 37300 61400 (2009) 718 (2005) 23200 1040 1720 2420 4200 22900 35900 39400 53800 59200
2026-05-08 23:45 13.63 37200 61400 (2009) 718 (2005) 23200 1040 1720 2420 4200 22900 35900 39400 53800 59200
2026-05-08 22:45 13.62 37200 57000 (2024) 737 (2005) 23000 782 1420 1810 2190 28000 36200 39700 45700 55900
2026-05-08 21:45 13.60 37100 57000 (2024) 737 (2005) 23000 782 1420 1810 2190 28000 36200 39700 45700 55900
2026-05-08 20:45 13.57 37000 57000 (2024) 737 (2005) 23000 782 1420 1810 2190 28000 36200 39700 45700 55900
2026-05-08 19:45 13.55 36900 57000 (2024) 737 (2005) 23000 782 1420 1810 2190 28000 36200 39700 45700 55900
2026-05-08 18:45 13.49 36600 57000 (2024) 737 (2005) 23000 782 1420 1810 2190 28000 36200 39700 45700 55900
2026-05-08 17:45 13.53 36800 57000 (2024) 737 (2005) 23000 782 1420 1810 2190 28000 36200 39700 45700 55900
2026-05-08 16:45 13.48 36600 57000 (2024) 737 (2005) 23000 782 1420 1810 2190 28000 36200 39700 45700 55900
2026-05-08 15:45 13.47 36600 57000 (2024) 737 (2005) 23000 782 1420 1810 2190 28000 36200 39700 45700 55900
2026-05-08 14:45 13.45 36500 57000 (2024) 737 (2005) 23000 782 1420 1810 2190 28000 36200 39700 45700 55900
2026-05-08 13:45 13.41 36300 57000 (2024) 737 (2005) 23000 782 1420 1810 2190 28000 36200 39700 45700 55900
2026-05-08 12:45 13.42 36300 57000 (2024) 737 (2005) 23000 782 1420 1810 2190 28000 36200 39700 45700 55900
2026-05-08 11:45 13.40 36300 57000 (2024) 737 (2005) 23000 782 1420 1810 2190 28000 36200 39700 45700 55900
2026-05-08 10:45 13.34 36000 57000 (2024) 737 (2005) 23000 782 1420 1810 2190 28000 36200 39700 45700 55900
2026-05-08 09:45 13.36 36100 57000 (2024) 737 (2005) 23000 782 1420 1810 2190 28000 36200 39700 45700 55900
2026-05-08 08:45 13.33 36000 57000 (2024) 737 (2005) 23000 782 1420 1810 2190 28000 36200 39700 45700 55900
2026-05-08 07:45 13.33 36000 57000 (2024) 737 (2005) 23000 782 1420 1810 2190 28000 36200 39700 45700 55900
2026-05-08 06:45 13.31 35900 57000 (2024) 737 (2005) 23000 782 1420 1810 2190 28000 36200 39700 45700 55900
2026-05-08 05:45 13.30 35800 57000 (2024) 737 (2005) 23000 782 1420 1810 2190 28000 36200 39700 45700 55900
2026-05-08 04:45 13.29 35800 57000 (2024) 737 (2005) 23000 782 1420 1810 2190 28000 36200 39700 45700 55900
2026-05-08 03:45 13.31 35900 57000 (2024) 737 (2005) 23000 782 1420 1810 2190 28000 36200 39700 45700 55900
2026-05-08 02:45 13.32 35900 57000 (2024) 737 (2005) 23000 782 1420 1810 2190 28000 36200 39700 45700 55900
2026-05-08 01:45 13.31 35900 57000 (2024) 737 (2005) 23000 782 1420 1810 2190 28000 36200 39700 45700 55900
2026-05-08 00:45 13.36 36100 57000 (2024) 737 (2005) 23000 782 1420 1810 2190 28000 36200 39700 45700 55900
2026-05-07 23:45 13.32 35900 57000 (2024) 737 (2005) 23000 782 1420 1810 2190 28000 36200 39700 45700 55900
2026-05-07 22:45 13.35 36100 49100 (2009) 772 (2005) 22000 778 1210 1660 2210 25500 35700 36300 48600 48900
2026-05-07 21:45 13.32 35900 49100 (2009) 772 (2005) 22000 778 1210 1660 2210 25500 35700 36300 48600 48900
2026-05-07 20:45 13.32 35900 49100 (2009) 772 (2005) 22000 778 1210 1660 2210 25500 35700 36300 48600 48900
2026-05-07 19:45 13.34 36000 49100 (2009) 772 (2005) 22000 778 1210 1660 2210 25500 35700 36300 48600 48900
2026-05-07 18:45 13.35 36100 49100 (2009) 772 (2005) 22000 778 1210 1660 2210 25500 35700 36300 48600 48900
2026-05-07 17:45 13.38 36200 49100 (2009) 772 (2005) 22000 778 1210 1660 2210 25500 35700 36300 48600 48900
2026-05-07 16:45 13.41 36300 49100 (2009) 772 (2005) 22000 778 1210 1660 2210 25500 35700 36300 48600 48900
2026-05-07 15:45 13.48 36600 49100 (2009) 772 (2005) 22000 778 1210 1660 2210 25500 35700 36300 48600 48900
2026-05-07 14:45 13.50 36700 49100 (2009) 772 (2005) 22000 778 1210 1660 2210 25500 35700 36300 48600 48900
2026-05-07 13:45 13.50 36700 49100 (2009) 772 (2005) 22000 778 1210 1660 2210 25500 35700 36300 48600 48900
2026-05-07 12:45 13.56 36900 49100 (2009) 772 (2005) 22000 778 1210 1660 2210 25500 35700 36300 48600 48900
2026-05-07 11:45 13.54 36800 49100 (2009) 772 (2005) 22000 778 1210 1660 2210 25500 35700 36300 48600 48900
2026-05-07 10:45 13.58 37000 49100 (2009) 772 (2005) 22000 778 1210 1660 2210 25500 35700 36300 48600 48900
2026-05-07 09:45 13.54 36800 49100 (2009) 772 (2005) 22000 778 1210 1660 2210 25500 35700 36300 48600 48900
2026-05-07 08:45 13.57 37000 49100 (2009) 772 (2005) 22000 778 1210 1660 2210 25500 35700 36300 48600 48900
2026-05-07 07:45 13.55 36900 49100 (2009) 772 (2005) 22000 778 1210 1660 2210 25500 35700 36300 48600 48900
2026-05-07 06:45 13.55 36900 49100 (2009) 772 (2005) 22000 778 1210 1660 2210 25500 35700 36300 48600 48900
2026-05-07 05:45 13.56 36900 49100 (2009) 772 (2005) 22000 778 1210 1660 2210 25500 35700 36300 48600 48900
2026-05-07 04:45 13.52 36800 49100 (2009) 772 (2005) 22000 778 1210 1660 2210 25500 35700 36300 48600 48900
2026-05-07 03:45 13.53 36800 49100 (2009) 772 (2005) 22000 778 1210 1660 2210 25500 35700 36300 48600 48900
2026-05-07 02:45 13.51 36700 49100 (2009) 772 (2005) 22000 778 1210 1660 2210 25500 35700 36300 48600 48900
2026-05-07 01:45 13.49 36600 49100 (2009) 772 (2005) 22000 778 1210 1660 2210 25500 35700 36300 48600 48900
2026-05-07 00:45 13.50 36700 49100 (2009) 772 (2005) 22000 778 1210 1660 2210 25500 35700 36300 48600 48900
2026-05-06 23:45 13.47 36600 49100 (2009) 772 (2005) 22000 778 1210 1660 2210 25500 35700 36300 48600 48900
2026-05-06 22:45 13.45 36500 62500 (2022) 644 (2000) 22700 735 1340 2050 2330 26100 34100 35200 47200 57300
2026-05-06 21:45 13.45 36500 62500 (2022) 644 (2000) 22700 735 1340 2050 2330 26100 34100 35200 47200 57300
2026-05-06 20:45 13.39 36200 62500 (2022) 644 (2000) 22700 735 1340 2050 2330 26100 34100 35200 47200 57300
2026-05-06 19:45 13.39 36200 62500 (2022) 644 (2000) 22700 735 1340 2050 2330 26100 34100 35200 47200 57300
2026-05-06 18:45 13.34 36000 62500 (2022) 644 (2000) 22700 735 1340 2050 2330 26100 34100 35200 47200 57300
2026-05-06 17:45 13.32 35900 62500 (2022) 644 (2000) 22700 735 1340 2050 2330 26100 34100 35200 47200 57300
2026-05-06 16:45 13.27 35800 62500 (2022) 644 (2000) 22700 735 1340 2050 2330 26100 34100 35200 47200 57300
2026-05-06 15:45 13.23 35600 62500 (2022) 644 (2000) 22700 735 1340 2050 2330 26100 34100 35200 47200 57300
2026-05-06 14:45 13.23 35600 62500 (2022) 644 (2000) 22700 735 1340 2050 2330 26100 34100 35200 47200 57300
2026-05-06 13:45 13.19 35400 62500 (2022) 644 (2000) 22700 735 1340 2050 2330 26100 34100 35200 47200 57300
2026-05-06 12:45 13.13 35200 62500 (2022) 644 (2000) 22700 735 1340 2050 2330 26100 34100 35200 47200 57300
2026-05-06 11:45 13.11 35100 62500 (2022) 644 (2000) 22700 735 1340 2050 2330 26100 34100 35200 47200 57300
2026-05-06 10:45 13.06 34900 62500 (2022) 644 (2000) 22700 735 1340 2050 2330 26100 34100 35200 47200 57300
2026-05-06 09:45 13.00 34600 62500 (2022) 644 (2000) 22700 735 1340 2050 2330 26100 34100 35200 47200 57300
2026-05-06 08:45 12.95 34400 62500 (2022) 644 (2000) 22700 735 1340 2050 2330 26100 34100 35200 47200 57300
2026-05-06 07:45 12.93 34400 62500 (2022) 644 (2000) 22700 735 1340 2050 2330 26100 34100 35200 47200 57300
2026-05-06 06:45 12.89 34200 62500 (2022) 644 (2000) 22700 735 1340 2050 2330 26100 34100 35200 47200 57300
2026-05-06 05:45 12.84 34000 62500 (2022) 644 (2000) 22700 735 1340 2050 2330 26100 34100 35200 47200 57300
2026-05-06 04:45 12.85 34100 62500 (2022) 644 (2000) 22700 735 1340 2050 2330 26100 34100 35200 47200 57300
2026-05-06 03:45 12.86 34100 62500 (2022) 644 (2000) 22700 735 1340 2050 2330 26100 34100 35200 47200 57300
2026-05-06 02:45 12.92 34300 62500 (2022) 644 (2000) 22700 735 1340 2050 2330 26100 34100 35200 47200 57300
2026-05-06 01:45 13.00 34600 62500 (2022) 644 (2000) 22700 735 1340 2050 2330 26100 34100 35200 47200 57300
2026-05-06 00:45 13.12 35100 62500 (2022) 644 (2000) 22700 735 1340 2050 2330 26100 34100 35200 47200 57300
2026-05-05 23:45 13.23 35600 62500 (2022) 644 (2000) 22700 735 1340 2050 2330 26100 34100 35200 47200 57300
2026-05-05 22:45 13.34 36000 58000 (2017) 673 (2000) 23500 888 1440 2100 3220 27900 34400 37800 52100 57100
2026-05-05 21:45 13.39 36200 58000 (2017) 673 (2000) 23500 888 1440 2100 3220 27900 34400 37800 52100 57100
2026-05-05 20:45 13.41 36300 58000 (2017) 673 (2000) 23500 888 1440 2100 3220 27900 34400 37800 52100 57100
2026-05-05 19:45 13.39 36200 58000 (2017) 673 (2000) 23500 888 1440 2100 3220 27900 34400 37800 52100 57100
2026-05-05 18:45 13.38 36200 58000 (2017) 673 (2000) 23500 888 1440 2100 3220 27900 34400 37800 52100 57100
2026-05-05 17:45 13.36 36100 58000 (2017) 673 (2000) 23500 888 1440 2100 3220 27900 34400 37800 52100 57100
2026-05-05 16:45 13.36 36100 58000 (2017) 673 (2000) 23500 888 1440 2100 3220 27900 34400 37800 52100 57100
2026-05-05 15:45 13.34 36000 58000 (2017) 673 (2000) 23500 888 1440 2100 3220 27900 34400 37800 52100 57100
2026-05-05 14:45 13.33 36000 58000 (2017) 673 (2000) 23500 888 1440 2100 3220 27900 34400 37800 52100 57100
2026-05-05 13:45 13.26 35700 58000 (2017) 673 (2000) 23500 888 1440 2100 3220 27900 34400 37800 52100 57100
2026-05-05 12:45 13.23 35600 58000 (2017) 673 (2000) 23500 888 1440 2100 3220 27900 34400 37800 52100 57100
2026-05-05 11:45 13.14 35200 58000 (2017) 673 (2000) 23500 888 1440 2100 3220 27900 34400 37800 52100 57100
2026-05-05 10:45 13.10 35100 58000 (2017) 673 (2000) 23500 888 1440 2100 3220 27900 34400 37800 52100 57100
2026-05-05 09:45 13.07 34900 58000 (2017) 673 (2000) 23500 888 1440 2100 3220 27900 34400 37800 52100 57100
2026-05-05 08:45 13.01 34700 58000 (2017) 673 (2000) 23500 888 1440 2100 3220 27900 34400 37800 52100 57100
2026-05-05 07:45 12.94 34400 58000 (2017) 673 (2000) 23500 888 1440 2100 3220 27900 34400 37800 52100 57100
2026-05-05 06:45 12.85 34100 58000 (2017) 673 (2000) 23500 888 1440 2100 3220 27900 34400 37800 52100 57100
2026-05-05 05:45 12.78 33800 58000 (2017) 673 (2000) 23500 888 1440 2100 3220 27900 34400 37800 52100 57100
2026-05-05 04:45 12.66 33300 58000 (2017) 673 (2000) 23500 888 1440 2100 3220 27900 34400 37800 52100 57100
2026-05-05 03:45 12.57 32900 58000 (2017) 673 (2000) 23500 888 1440 2100 3220 27900 34400 37800 52100 57100
2026-05-05 02:45 12.46 32500 58000 (2017) 673 (2000) 23500 888 1440 2100 3220 27900 34400 37800 52100 57100
2026-05-05 01:45 12.28 31800 58000 (2017) 673 (2000) 23500 888 1440 2100 3220 27900 34400 37800 52100 57100
2026-05-05 00:45 12.12 31200 58000 (2017) 673 (2000) 23500 888 1440 2100 3220 27900 34400 37800 52100 57100
2026-05-04 23:45 11.95 30600 58000 (2017) 673 (2000) 23500 888 1440 2100 3220 27900 34400 37800 52100 57100
2026-05-04 22:45 11.70 29600 77300 (2017) 934 (2000) 23400 1160 1800 2860 3610 27000 33900 38500 41400 64400
2026-05-04 21:45 11.49 28800 77300 (2017) 934 (2000) 23400 1160 1800 2860 3610 27000 33900 38500 41400 64400
2026-05-04 20:45 11.20 27800 77300 (2017) 934 (2000) 23400 1160 1800 2860 3610 27000 33900 38500 41400 64400
2026-05-04 19:45 10.95 26800 77300 (2017) 934 (2000) 23400 1160 1800 2860 3610 27000 33900 38500 41400 64400
2026-05-04 18:45 10.64 25800 77300 (2017) 934 (2000) 23400 1160 1800 2860 3610 27000 33900 38500 41400 64400
2026-05-04 17:45 10.39 24900 77300 (2017) 934 (2000) 23400 1160 1800 2860 3610 27000 33900 38500 41400 64400
2026-05-04 16:45 10.10 23900 77300 (2017) 934 (2000) 23400 1160 1800 2860 3610 27000 33900 38500 41400 64400
2026-05-04 15:45 9.86 23100 77300 (2017) 934 (2000) 23400 1160 1800 2860 3610 27000 33900 38500 41400 64400
2026-05-04 14:45 9.67 22400 77300 (2017) 934 (2000) 23400 1160 1800 2860 3610 27000 33900 38500 41400 64400
2026-05-04 13:45 9.52 21900 77300 (2017) 934 (2000) 23400 1160 1800 2860 3610 27000 33900 38500 41400 64400
2026-05-04 12:45 9.44 21600 77300 (2017) 934 (2000) 23400 1160 1800 2860 3610 27000 33900 38500 41400 64400
2026-05-04 11:45 9.37 21300 77300 (2017) 934 (2000) 23400 1160 1800 2860 3610 27000 33900 38500 41400 64400
2026-05-04 10:45 9.34 21200 77300 (2017) 934 (2000) 23400 1160 1800 2860 3610 27000 33900 38500 41400 64400
2026-05-04 09:45 9.34 21200 77300 (2017) 934 (2000) 23400 1160 1800 2860 3610 27000 33900 38500 41400 64400
2026-05-04 08:45 9.35 21200 77300 (2017) 934 (2000) 23400 1160 1800 2860 3610 27000 33900 38500 41400 64400
2026-05-04 07:45 9.37 21300 77300 (2017) 934 (2000) 23400 1160 1800 2860 3610 27000 33900 38500 41400 64400
2026-05-04 06:45 9.40 21400 77300 (2017) 934 (2000) 23400 1160 1800 2860 3610 27000 33900 38500 41400 64400
2026-05-04 05:45 9.43 21500 77300 (2017) 934 (2000) 23400 1160 1800 2860 3610 27000 33900 38500 41400 64400
2026-05-04 04:45 9.44 21600 77300 (2017) 934 (2000) 23400 1160 1800 2860 3610 27000 33900 38500 41400 64400
2026-05-04 03:45 9.45 21600 77300 (2017) 934 (2000) 23400 1160 1800 2860 3610 27000 33900 38500 41400 64400
2026-05-04 02:45 9.40 21400 77300 (2017) 934 (2000) 23400 1160 1800 2860 3610 27000 33900 38500 41400 64400
2026-05-04 01:45 9.34 21200 77300 (2017) 934 (2000) 23400 1160 1800 2860 3610 27000 33900 38500 41400 64400
2026-05-04 00:45 9.27 20900 77300 (2017) 934 (2000) 23400 1160 1800 2860 3610 27000 33900 38500 41400 64400
2026-05-03 23:45 9.17 20500 77300 (2017) 934 (2000) 23400 1160 1800 2860 3610 27000 33900 38500 41400 64400
2026-05-03 22:45 9.12 20300 69400 (2017) 1310 (2000) 22900 1490 1880 3440 5060 25700 32800 36200 41900 57200
2026-05-03 21:45 9.13 20400 69400 (2017) 1310 (2000) 22900 1490 1880 3440 5060 25700 32800 36200 41900 57200
2026-05-03 20:45 9.14 20400 69400 (2017) 1310 (2000) 22900 1490 1880 3440 5060 25700 32800 36200 41900 57200
2026-05-03 19:45 9.17 20500 69400 (2017) 1310 (2000) 22900 1490 1880 3440 5060 25700 32800 36200 41900 57200
2026-05-03 18:45 9.21 20600 69400 (2017) 1310 (2000) 22900 1490 1880 3440 5060 25700 32800 36200 41900 57200
2026-05-03 17:45 9.29 21000 69400 (2017) 1310 (2000) 22900 1490 1880 3440 5060 25700 32800 36200 41900 57200
2026-05-03 16:45 9.38 21300 69400 (2017) 1310 (2000) 22900 1490 1880 3440 5060 25700 32800 36200 41900 57200
2026-05-03 15:45 9.54 22000 69400 (2017) 1310 (2000) 22900 1490 1880 3440 5060 25700 32800 36200 41900 57200
2026-05-03 14:45 9.70 22500 69400 (2017) 1310 (2000) 22900 1490 1880 3440 5060 25700 32800 36200 41900 57200
2026-05-03 13:45 9.87 23100 69400 (2017) 1310 (2000) 22900 1490 1880 3440 5060 25700 32800 36200 41900 57200
2026-05-03 12:45 10.06 23700 69400 (2017) 1310 (2000) 22900 1490 1880 3440 5060 25700 32800 36200 41900 57200
2026-05-03 11:45 10.24 24400 69400 (2017) 1310 (2000) 22900 1490 1880 3440 5060 25700 32800 36200 41900 57200
2026-05-03 10:45 10.41 25000 69400 (2017) 1310 (2000) 22900 1490 1880 3440 5060 25700 32800 36200 41900 57200
2026-05-03 09:45 10.57 25500 69400 (2017) 1310 (2000) 22900 1490 1880 3440 5060 25700 32800 36200 41900 57200
2026-05-03 08:45 10.70 26000 69400 (2017) 1310 (2000) 22900 1490 1880 3440 5060 25700 32800 36200 41900 57200
2026-05-03 07:45 10.79 26300 69400 (2017) 1310 (2000) 22900 1490 1880 3440 5060 25700 32800 36200 41900 57200
2026-05-03 06:45 10.86 26500 69400 (2017) 1310 (2000) 22900 1490 1880 3440 5060 25700 32800 36200 41900 57200
2026-05-03 05:45 10.92 26700 69400 (2017) 1310 (2000) 22900 1490 1880 3440 5060 25700 32800 36200 41900 57200
2026-05-03 04:45 11.01 27100 69400 (2017) 1310 (2000) 22900 1490 1880 3440 5060 25700 32800 36200 41900 57200
2026-05-03 03:45 11.09 27400 69400 (2017) 1310 (2000) 22900 1490 1880 3440 5060 25700 32800 36200 41900 57200
2026-05-03 02:45 11.22 27900 69400 (2017) 1310 (2000) 22900 1490 1880 3440 5060 25700 32800 36200 41900 57200
2026-05-03 01:45 11.36 28300 69400 (2017) 1310 (2000) 22900 1490 1880 3440 5060 25700 32800 36200 41900 57200
2026-05-03 00:45 11.49 28800 69400 (2017) 1310 (2000) 22900 1490 1880 3440 5060 25700 32800 36200 41900 57200
2026-05-02 23:45 11.59 29200 69400 (2017) 1310 (2000) 22900 1490 1880 3440 5060 25700 32800 36200 41900 57200
2026-05-02 22:45 11.79 29900 79000 (2017) 671 (2000) 22000 968 2400 3980 5160 21600 33400 34100 39100 63800
2026-05-02 21:45 11.97 30600 79000 (2017) 671 (2000) 22000 968 2400 3980 5160 21600 33400 34100 39100 63800
2026-05-02 20:45 12.19 31500 79000 (2017) 671 (2000) 22000 968 2400 3980 5160 21600 33400 34100 39100 63800
2026-05-02 19:45 12.36 32100 79000 (2017) 671 (2000) 22000 968 2400 3980 5160 21600 33400 34100 39100 63800
2026-05-02 18:45 12.54 32800 79000 (2017) 671 (2000) 22000 968 2400 3980 5160 21600 33400 34100 39100 63800
2026-05-02 17:45 12.65 33300 79000 (2017) 671 (2000) 22000 968 2400 3980 5160 21600 33400 34100 39100 63800
2026-05-02 16:45 12.75 33700 79000 (2017) 671 (2000) 22000 968 2400 3980 5160 21600 33400 34100 39100 63800
2026-05-02 15:45 12.85 34100 79000 (2017) 671 (2000) 22000 968 2400 3980 5160 21600 33400 34100 39100 63800
2026-05-02 14:45 12.79 33800 79000 (2017) 671 (2000) 22000 968 2400 3980 5160 21600 33400 34100 39100 63800
2026-05-02 13:45 12.78 33800 79000 (2017) 671 (2000) 22000 968 2400 3980 5160 21600 33400 34100 39100 63800
2026-05-02 12:45 12.69 33400 79000 (2017) 671 (2000) 22000 968 2400 3980 5160 21600 33400 34100 39100 63800
2026-05-02 11:45 12.63 33200 79000 (2017) 671 (2000) 22000 968 2400 3980 5160 21600 33400 34100 39100 63800
2026-05-02 10:45 12.48 32600 79000 (2017) 671 (2000) 22000 968 2400 3980 5160 21600 33400 34100 39100 63800
2026-05-02 09:45 12.31 31900 79000 (2017) 671 (2000) 22000 968 2400 3980 5160 21600 33400 34100 39100 63800
2026-05-02 08:45 12.12 31200 79000 (2017) 671 (2000) 22000 968 2400 3980 5160 21600 33400 34100 39100 63800
2026-05-02 07:45 11.98 30700 79000 (2017) 671 (2000) 22000 968 2400 3980 5160 21600 33400 34100 39100 63800
2026-05-02 06:45 11.80 30000 79000 (2017) 671 (2000) 22000 968 2400 3980 5160 21600 33400 34100 39100 63800
2026-05-02 05:45 11.59 29200 79000 (2017) 671 (2000) 22000 968 2400 3980 5160 21600 33400 34100 39100 63800
2026-05-02 04:45 11.45 28700 79000 (2017) 671 (2000) 22000 968 2400 3980 5160 21600 33400 34100 39100 63800
2026-05-02 03:45 11.30 28100 79000 (2017) 671 (2000) 22000 968 2400 3980 5160 21600 33400 34100 39100 63800
2026-05-02 02:45 11.19 27700 79000 (2017) 671 (2000) 22000 968 2400 3980 5160 21600 33400 34100 39100 63800
2026-05-02 01:45 11.11 27400 79000 (2017) 671 (2000) 22000 968 2400 3980 5160 21600 33400 34100 39100 63800
2026-05-02 00:45 11.11 27400 79000 (2017) 671 (2000) 22000 968 2400 3980 5160 21600 33400 34100 39100 63800
2026-05-01 23:45 11.17 27700 79000 (2017) 671 (2000) 22000 968 2400 3980 5160 21600 33400 34100 39100 63800
2026-05-01 22:45 11.28 28000 90600 (2017) 607 (2000) 22000 1140 2270 3790 4010 21000 32400 33700 46400 72200
2026-05-01 21:45 11.42 28600 90600 (2017) 607 (2000) 22000 1140 2270 3790 4010 21000 32400 33700 46400 72200
2026-05-01 20:45 11.57 29100 90600 (2017) 607 (2000) 22000 1140 2270 3790 4010 21000 32400 33700 46400 72200
2026-05-01 19:45 11.70 29600 90600 (2017) 607 (2000) 22000 1140 2270 3790 4010 21000 32400 33700 46400 72200
2026-05-01 18:45 11.83 30100 90600 (2017) 607 (2000) 22000 1140 2270 3790 4010 21000 32400 33700 46400 72200
2026-05-01 17:45 11.90 30400 90600 (2017) 607 (2000) 22000 1140 2270 3790 4010 21000 32400 33700 46400 72200
2026-05-01 16:45 11.98 30700 90600 (2017) 607 (2000) 22000 1140 2270 3790 4010 21000 32400 33700 46400 72200
2026-05-01 15:45 12.04 30900 90600 (2017) 607 (2000) 22000 1140 2270 3790 4010 21000 32400 33700 46400 72200
2026-05-01 14:45 12.05 31000 90600 (2017) 607 (2000) 22000 1140 2270 3790 4010 21000 32400 33700 46400 72200
2026-05-01 13:45 12.02 30800 90600 (2017) 607 (2000) 22000 1140 2270 3790 4010 21000 32400 33700 46400 72200
2026-05-01 12:45 11.99 30700 90600 (2017) 607 (2000) 22000 1140 2270 3790 4010 21000 32400 33700 46400 72200
2026-05-01 11:45 11.88 30300 90600 (2017) 607 (2000) 22000 1140 2270 3790 4010 21000 32400 33700 46400 72200
2026-05-01 10:45 11.75 29800 90600 (2017) 607 (2000) 22000 1140 2270 3790 4010 21000 32400 33700 46400 72200
2026-05-01 09:45 11.62 29300 90600 (2017) 607 (2000) 22000 1140 2270 3790 4010 21000 32400 33700 46400 72200
2026-05-01 08:45 11.51 28900 90600 (2017) 607 (2000) 22000 1140 2270 3790 4010 21000 32400 33700 46400 72200
2026-05-01 07:45 11.40 28500 90600 (2017) 607 (2000) 22000 1140 2270 3790 4010 21000 32400 33700 46400 72200
2026-05-01 06:45 11.31 28200 90600 (2017) 607 (2000) 22000 1140 2270 3790 4010 21000 32400 33700 46400 72200
2026-05-01 05:45 11.21 27800 90600 (2017) 607 (2000) 22000 1140 2270 3790 4010 21000 32400 33700 46400 72200
2026-05-01 04:45 11.09 27400 90600 (2017) 607 (2000) 22000 1140 2270 3790 4010 21000 32400 33700 46400 72200
2026-05-01 03:45 10.98 27000 90600 (2017) 607 (2000) 22000 1140 2270 3790 4010 21000 32400 33700 46400 72200
2026-05-01 02:45 10.92 26700 90600 (2017) 607 (2000) 22000 1140 2270 3790 4010 21000 32400 33700 46400 72200
2026-05-01 01:45 10.80 26300 90600 (2017) 607 (2000) 22000 1140 2270 3790 4010 21000 32400 33700 46400 72200
2026-05-01 00:45 10.75 26200 90600 (2017) 607 (2000) 22000 1140 2270 3790 4010 21000 32400 33700 46400 72200
2026-04-30 23:45 10.72 26000 90600 (2017) 607 (2000) 22000 1140 2270 3790 4010 21000 32400 33700 46400 72200
2026-04-30 22:45 10.70 26000 77400 (2017) 599 (2000) 20900 1460 2810 5400 6060 17000 33400 35900 42700 64600
2026-04-30 21:45 10.74 26100 77400 (2017) 599 (2000) 20900 1460 2810 5400 6060 17000 33400 35900 42700 64600
2026-04-30 20:45 10.80 26300 77400 (2017) 599 (2000) 20900 1460 2810 5400 6060 17000 33400 35900 42700 64600
2026-04-30 19:45 10.88 26600 77400 (2017) 599 (2000) 20900 1460 2810 5400 6060 17000 33400 35900 42700 64600
2026-04-30 18:45 10.91 26700 77400 (2017) 599 (2000) 20900 1460 2810 5400 6060 17000 33400 35900 42700 64600
2026-04-30 17:45 10.93 26800 77400 (2017) 599 (2000) 20900 1460 2810 5400 6060 17000 33400 35900 42700 64600
2026-04-30 16:45 10.94 26800 77400 (2017) 599 (2000) 20900 1460 2810 5400 6060 17000 33400 35900 42700 64600
2026-04-30 15:45 10.94 26800 77400 (2017) 599 (2000) 20900 1460 2810 5400 6060 17000 33400 35900 42700 64600
2026-04-30 14:45 10.95 26800 77400 (2017) 599 (2000) 20900 1460 2810 5400 6060 17000 33400 35900 42700 64600
2026-04-30 13:45 10.94 26800 77400 (2017) 599 (2000) 20900 1460 2810 5400 6060 17000 33400 35900 42700 64600
2026-04-30 12:45 10.95 26800 77400 (2017) 599 (2000) 20900 1460 2810 5400 6060 17000 33400 35900 42700 64600
2026-04-30 11:45 10.92 26700 77400 (2017) 599 (2000) 20900 1460 2810 5400 6060 17000 33400 35900 42700 64600
2026-04-30 10:45 10.89 26600 77400 (2017) 599 (2000) 20900 1460 2810 5400 6060 17000 33400 35900 42700 64600
2026-04-30 09:45 10.81 26400 77400 (2017) 599 (2000) 20900 1460 2810 5400 6060 17000 33400 35900 42700 64600
2026-04-30 08:45 10.75 26200 77400 (2017) 599 (2000) 20900 1460 2810 5400 6060 17000 33400 35900 42700 64600
2026-04-30 07:45 10.70 26000 77400 (2017) 599 (2000) 20900 1460 2810 5400 6060 17000 33400 35900 42700 64600
2026-04-30 06:45 10.62 25700 77400 (2017) 599 (2000) 20900 1460 2810 5400 6060 17000 33400 35900 42700 64600
2026-04-30 05:45 10.48 25200 77400 (2017) 599 (2000) 20900 1460 2810 5400 6060 17000 33400 35900 42700 64600
2026-04-30 04:45 10.32 24600 77400 (2017) 599 (2000) 20900 1460 2810 5400 6060 17000 33400 35900 42700 64600
2026-04-30 03:45 10.17 24100 77400 (2017) 599 (2000) 20900 1460 2810 5400 6060 17000 33400 35900 42700 64600
2026-04-30 02:45 10.04 23600 77400 (2017) 599 (2000) 20900 1460 2810 5400 6060 17000 33400 35900 42700 64600
2026-04-30 01:45 9.98 23500 77400 (2017) 599 (2000) 20900 1460 2810 5400 6060 17000 33400 35900 42700 64600
2026-04-30 00:45 10.03 23600 77400 (2017) 599 (2000) 20900 1460 2810 5400 6060 17000 33400 35900 42700 64600
2026-04-29 23:45 10.13 24000 77400 (2017) 599 (2000) 20900 1460 2810 5400 6060 17000 33400 35900 42700 64600
2026-04-29 22:45 10.29 24500 49700 (2008) 582 (2000) 19300 815 3240 3950 4360 14400 33600 36800 42700 46600
2026-04-29 21:45 10.47 25100 49700 (2008) 582 (2000) 19300 815 3240 3950 4360 14400 33600 36800 42700 46600
2026-04-29 20:45 10.65 25800 49700 (2008) 582 (2000) 19300 815 3240 3950 4360 14400 33600 36800 42700 46600
2026-04-29 19:45 10.86 26500 49700 (2008) 582 (2000) 19300 815 3240 3950 4360 14400 33600 36800 42700 46600
2026-04-29 18:45 11.09 27400 49700 (2008) 582 (2000) 19300 815 3240 3950 4360 14400 33600 36800 42700 46600
2026-04-29 17:45 11.30 28100 49700 (2008) 582 (2000) 19300 815 3240 3950 4360 14400 33600 36800 42700 46600
2026-04-29 16:45 11.50 28900 49700 (2008) 582 (2000) 19300 815 3240 3950 4360 14400 33600 36800 42700 46600
2026-04-29 15:45 11.71 29600 49700 (2008) 582 (2000) 19300 815 3240 3950 4360 14400 33600 36800 42700 46600
2026-04-29 14:45 11.88 30300 49700 (2008) 582 (2000) 19300 815 3240 3950 4360 14400 33600 36800 42700 46600
2026-04-29 13:45 12.04 30900 49700 (2008) 582 (2000) 19300 815 3240 3950 4360 14400 33600 36800 42700 46600
2026-04-29 12:45 12.22 31600 49700 (2008) 582 (2000) 19300 815 3240 3950 4360 14400 33600 36800 42700 46600
2026-04-29 11:45 12.37 32200 49700 (2008) 582 (2000) 19300 815 3240 3950 4360 14400 33600 36800 42700 46600
2026-04-29 10:45 12.56 32900 49700 (2008) 582 (2000) 19300 815 3240 3950 4360 14400 33600 36800 42700 46600
2026-04-29 09:45 12.75 33700 49700 (2008) 582 (2000) 19300 815 3240 3950 4360 14400 33600 36800 42700 46600
2026-04-29 08:45 12.99 34600 49700 (2008) 582 (2000) 19300 815 3240 3950 4360 14400 33600 36800 42700 46600
2026-04-29 07:45 13.30 35800 49700 (2008) 582 (2000) 19300 815 3240 3950 4360 14400 33600 36800 42700 46600
2026-04-29 06:45 13.56 36900 49700 (2008) 582 (2000) 19300 815 3240 3950 4360 14400 33600 36800 42700 46600
2026-04-29 05:45 13.86 38200 49700 (2008) 582 (2000) 19300 815 3240 3950 4360 14400 33600 36800 42700 46600
2026-04-29 04:45 14.07 39100 49700 (2008) 582 (2000) 19300 815 3240 3950 4360 14400 33600 36800 42700 46600
2026-04-29 03:45 14.27 39900 49700 (2008) 582 (2000) 19300 815 3240 3950 4360 14400 33600 36800 42700 46600
2026-04-29 02:45 14.39 40400 49700 (2008) 582 (2000) 19300 815 3240 3950 4360 14400 33600 36800 42700 46600
2026-04-29 01:45 14.42 40500 49700 (2008) 582 (2000) 19300 815 3240 3950 4360 14400 33600 36800 42700 46600
2026-04-29 00:45 14.44 40600 49700 (2008) 582 (2000) 19300 815 3240 3950 4360 14400 33600 36800 42700 46600
2026-04-28 23:45 14.44 40600 49700 (2008) 582 (2000) 19300 815 3240 3950 4360 14400 33600 36800 42700 46600
2026-04-28 22:45 14.42 40500 50100 (2008) 606 (2000) 17800 614 1080 3360 3650 11300 32500 32800 39100 45600
2026-04-28 21:45 14.41 40500 50100 (2008) 606 (2000) 17800 614 1080 3360 3650 11300 32500 32800 39100 45600
2026-04-28 20:45 14.40 40500 50100 (2008) 606 (2000) 17800 614 1080 3360 3650 11300 32500 32800 39100 45600
2026-04-28 19:45 14.44 40600 50100 (2008) 606 (2000) 17800 614 1080 3360 3650 11300 32500 32800 39100 45600
2026-04-28 18:45 14.42 40500 50100 (2008) 606 (2000) 17800 614 1080 3360 3650 11300 32500 32800 39100 45600
2026-04-28 17:45 14.44 40600 50100 (2008) 606 (2000) 17800 614 1080 3360 3650 11300 32500 32800 39100 45600
2026-04-28 16:45 14.44 40600 50100 (2008) 606 (2000) 17800 614 1080 3360 3650 11300 32500 32800 39100 45600
2026-04-28 15:45 14.47 40800 50100 (2008) 606 (2000) 17800 614 1080 3360 3650 11300 32500 32800 39100 45600
2026-04-28 14:45 14.48 40800 50100 (2008) 606 (2000) 17800 614 1080 3360 3650 11300 32500 32800 39100 45600
2026-04-28 13:45 14.45 40700 50100 (2008) 606 (2000) 17800 614 1080 3360 3650 11300 32500 32800 39100 45600
2026-04-28 12:45 14.52 40900 50100 (2008) 606 (2000) 17800 614 1080 3360 3650 11300 32500 32800 39100 45600
2026-04-28 11:45 14.56 41100 50100 (2008) 606 (2000) 17800 614 1080 3360 3650 11300 32500 32800 39100 45600
2026-04-28 10:45 14.60 41300 50100 (2008) 606 (2000) 17800 614 1080 3360 3650 11300 32500 32800 39100 45600
2026-04-28 09:45 14.63 41400 50100 (2008) 606 (2000) 17800 614 1080 3360 3650 11300 32500 32800 39100 45600
2026-04-28 08:45 14.67 41600 50100 (2008) 606 (2000) 17800 614 1080 3360 3650 11300 32500 32800 39100 45600
2026-04-28 07:45 14.80 42200 50100 (2008) 606 (2000) 17800 614 1080 3360 3650 11300 32500 32800 39100 45600
2026-04-28 06:45 14.88 42500 50100 (2008) 606 (2000) 17800 614 1080 3360 3650 11300 32500 32800 39100 45600
2026-04-28 05:45 14.96 42800 50100 (2008) 606 (2000) 17800 614 1080 3360 3650 11300 32500 32800 39100 45600
2026-04-28 04:45 15.04 43200 50100 (2008) 606 (2000) 17800 614 1080 3360 3650 11300 32500 32800 39100 45600
2026-04-28 03:45 15.13 43600 50100 (2008) 606 (2000) 17800 614 1080 3360 3650 11300 32500 32800 39100 45600
2026-04-28 02:45 15.21 44000 50100 (2008) 606 (2000) 17800 614 1080 3360 3650 11300 32500 32800 39100 45600
2026-04-28 01:45 15.24 44100 50100 (2008) 606 (2000) 17800 614 1080 3360 3650 11300 32500 32800 39100 45600
2026-04-28 00:45 15.33 44500 50100 (2008) 606 (2000) 17800 614 1080 3360 3650 11300 32500 32800 39100 45600
2026-04-27 23:45 15.36 44600 50100 (2008) 606 (2000) 17800 614 1080 3360 3650 11300 32500 32800 39100 45600
2026-04-27 22:45 15.33 44500 50800 (2008) 624 (2000) 17600 641 1560 3860 4120 11700 30100 31600 39100 49500
2026-04-27 21:45 15.27 44200 50800 (2008) 624 (2000) 17600 641 1560 3860 4120 11700 30100 31600 39100 49500
2026-04-27 20:45 15.27 44200 50800 (2008) 624 (2000) 17600 641 1560 3860 4120 11700 30100 31600 39100 49500
2026-04-27 19:45 15.22 44000 50800 (2008) 624 (2000) 17600 641 1560 3860 4120 11700 30100 31600 39100 49500
2026-04-27 18:45 15.15 43700 50800 (2008) 624 (2000) 17600 641 1560 3860 4120 11700 30100 31600 39100 49500
2026-04-27 17:45 15.08 43400 50800 (2008) 624 (2000) 17600 641 1560 3860 4120 11700 30100 31600 39100 49500
2026-04-27 16:45 15.06 43300 50800 (2008) 624 (2000) 17600 641 1560 3860 4120 11700 30100 31600 39100 49500
2026-04-27 15:45 14.97 42900 50800 (2008) 624 (2000) 17600 641 1560 3860 4120 11700 30100 31600 39100 49500
2026-04-27 14:45 14.85 42400 50800 (2008) 624 (2000) 17600 641 1560 3860 4120 11700 30100 31600 39100 49500
2026-04-27 13:45 14.78 42100 50800 (2008) 624 (2000) 17600 641 1560 3860 4120 11700 30100 31600 39100 49500
2026-04-27 12:45 14.64 41500 50800 (2008) 624 (2000) 17600 641 1560 3860 4120 11700 30100 31600 39100 49500
2026-04-27 11:45 14.52 40900 50800 (2008) 624 (2000) 17600 641 1560 3860 4120 11700 30100 31600 39100 49500
2026-04-27 10:45 14.36 40300 50800 (2008) 624 (2000) 17600 641 1560 3860 4120 11700 30100 31600 39100 49500
2026-04-27 09:45 14.19 39500 50800 (2008) 624 (2000) 17600 641 1560 3860 4120 11700 30100 31600 39100 49500
2026-04-27 08:45 13.97 38600 50800 (2008) 624 (2000) 17600 641 1560 3860 4120 11700 30100 31600 39100 49500
2026-04-27 07:45 13.75 37700 50800 (2008) 624 (2000) 17600 641 1560 3860 4120 11700 30100 31600 39100 49500
2026-04-27 06:45 13.45 36500 50800 (2008) 624 (2000) 17600 641 1560 3860 4120 11700 30100 31600 39100 49500
2026-04-27 05:45 13.15 35300 50800 (2008) 624 (2000) 17600 641 1560 3860 4120 11700 30100 31600 39100 49500
2026-04-27 04:45 12.84 34000 50800 (2008) 624 (2000) 17600 641 1560 3860 4120 11700 30100 31600 39100 49500
2026-04-27 03:45 12.51 32700 50800 (2008) 624 (2000) 17600 641 1560 3860 4120 11700 30100 31600 39100 49500
2026-04-27 02:45 12.19 31500 50800 (2008) 624 (2000) 17600 641 1560 3860 4120 11700 30100 31600 39100 49500
2026-04-27 01:45 11.95 30600 50800 (2008) 624 (2000) 17600 641 1560 3860 4120 11700 30100 31600 39100 49500
2026-04-27 00:45 11.80 30000 50800 (2008) 624 (2000) 17600 641 1560 3860 4120 11700 30100 31600 39100 49500
2026-04-26 23:45 11.73 29700 50800 (2008) 624 (2000) 17600 641 1560 3860 4120 11700 30100 31600 39100 49500
2026-04-26 22:45 11.71 29600 53000 (2008) 617 (2000) 16800 673 1650 3320 4820 11600 31200 34300 37600 48300
2026-04-26 21:45 11.80 30000 53000 (2008) 617 (2000) 16800 673 1650 3320 4820 11600 31200 34300 37600 48300
2026-04-26 20:45 11.92 30500 53000 (2008) 617 (2000) 16800 673 1650 3320 4820 11600 31200 34300 37600 48300
2026-04-26 19:45 12.09 31100 53000 (2008) 617 (2000) 16800 673 1650 3320 4820 11600 31200 34300 37600 48300
2026-04-26 18:45 12.30 31900 53000 (2008) 617 (2000) 16800 673 1650 3320 4820 11600 31200 34300 37600 48300
2026-04-26 17:45 12.52 32700 53000 (2008) 617 (2000) 16800 673 1650 3320 4820 11600 31200 34300 37600 48300
2026-04-26 16:45 12.67 33300 53000 (2008) 617 (2000) 16800 673 1650 3320 4820 11600 31200 34300 37600 48300
2026-04-26 15:45 12.72 33500 53000 (2008) 617 (2000) 16800 673 1650 3320 4820 11600 31200 34300 37600 48300
2026-04-26 14:45 12.73 33600 53000 (2008) 617 (2000) 16800 673 1650 3320 4820 11600 31200 34300 37600 48300
2026-04-26 13:45 12.68 33400 53000 (2008) 617 (2000) 16800 673 1650 3320 4820 11600 31200 34300 37600 48300
2026-04-26 12:45 12.63 33200 53000 (2008) 617 (2000) 16800 673 1650 3320 4820 11600 31200 34300 37600 48300
2026-04-26 11:45 12.54 32800 53000 (2008) 617 (2000) 16800 673 1650 3320 4820 11600 31200 34300 37600 48300
2026-04-26 10:45 12.44 32500 53000 (2008) 617 (2000) 16800 673 1650 3320 4820 11600 31200 34300 37600 48300
2026-04-26 09:45 12.36 32100 53000 (2008) 617 (2000) 16800 673 1650 3320 4820 11600 31200 34300 37600 48300
2026-04-26 08:45 12.26 31700 53000 (2008) 617 (2000) 16800 673 1650 3320 4820 11600 31200 34300 37600 48300
2026-04-26 07:45 12.16 31400 53000 (2008) 617 (2000) 16800 673 1650 3320 4820 11600 31200 34300 37600 48300
2026-04-26 06:45 12.07 31000 53000 (2008) 617 (2000) 16800 673 1650 3320 4820 11600 31200 34300 37600 48300
2026-04-26 05:45 11.99 30700 53000 (2008) 617 (2000) 16800 673 1650 3320 4820 11600 31200 34300 37600 48300
2026-04-26 04:45 11.90 30400 53000 (2008) 617 (2000) 16800 673 1650 3320 4820 11600 31200 34300 37600 48300
2026-04-26 03:45 11.84 30100 53000 (2008) 617 (2000) 16800 673 1650 3320 4820 11600 31200 34300 37600 48300
2026-04-26 02:45 11.76 29800 53000 (2008) 617 (2000) 16800 673 1650 3320 4820 11600 31200 34300 37600 48300
2026-04-26 01:45 11.67 29500 53000 (2008) 617 (2000) 16800 673 1650 3320 4820 11600 31200 34300 37600 48300
2026-04-26 00:45 11.54 29000 53000 (2008) 617 (2000) 16800 673 1650 3320 4820 11600 31200 34300 37600 48300
2026-04-25 23:45 11.49 28800 53000 (2008) 617 (2000) 16800 673 1650 3320 4820 11600 31200 34300 37600 48300
2026-04-25 22:45 11.42 28600 52000 (2008) 636 (2000) 17300 740 1480 3790 4520 13800 31700 31800 36800 45800
2026-04-25 21:45 11.37 28400 52000 (2008) 636 (2000) 17300 740 1480 3790 4520 13800 31700 31800 36800 45800
2026-04-25 20:45 11.35 28300 52000 (2008) 636 (2000) 17300 740 1480 3790 4520 13800 31700 31800 36800 45800
2026-04-25 19:45 11.31 28200 52000 (2008) 636 (2000) 17300 740 1480 3790 4520 13800 31700 31800 36800 45800
2026-04-25 18:45 11.22 27900 52000 (2008) 636 (2000) 17300 740 1480 3790 4520 13800 31700 31800 36800 45800
2026-04-25 17:45 11.13 27500 52000 (2008) 636 (2000) 17300 740 1480 3790 4520 13800 31700 31800 36800 45800
2026-04-25 16:45 11.03 27100 52000 (2008) 636 (2000) 17300 740 1480 3790 4520 13800 31700 31800 36800 45800
2026-04-25 15:45 10.94 26800 52000 (2008) 636 (2000) 17300 740 1480 3790 4520 13800 31700 31800 36800 45800
2026-04-25 14:45 10.90 26700 52000 (2008) 636 (2000) 17300 740 1480 3790 4520 13800 31700 31800 36800 45800
2026-04-25 13:45 10.90 26700 52000 (2008) 636 (2000) 17300 740 1480 3790 4520 13800 31700 31800 36800 45800
2026-04-25 12:45 10.98 27000 52000 (2008) 636 (2000) 17300 740 1480 3790 4520 13800 31700 31800 36800 45800
2026-04-25 11:45 11.09 27400 52000 (2008) 636 (2000) 17300 740 1480 3790 4520 13800 31700 31800 36800 45800
2026-04-25 10:45 11.20 27800 52000 (2008) 636 (2000) 17300 740 1480 3790 4520 13800 31700 31800 36800 45800
2026-04-25 09:45 11.31 28200 52000 (2008) 636 (2000) 17300 740 1480 3790 4520 13800 31700 31800 36800 45800
2026-04-25 08:45 11.36 28300 52000 (2008) 636 (2000) 17300 740 1480 3790 4520 13800 31700 31800 36800 45800
2026-04-25 07:45 11.38 28400 52000 (2008) 636 (2000) 17300 740 1480 3790 4520 13800 31700 31800 36800 45800
2026-04-25 06:45 11.36 28300 52000 (2008) 636 (2000) 17300 740 1480 3790 4520 13800 31700 31800 36800 45800
2026-04-25 05:45 11.37 28400 52000 (2008) 636 (2000) 17300 740 1480 3790 4520 13800 31700 31800 36800 45800
2026-04-25 04:45 11.37 28400 52000 (2008) 636 (2000) 17300 740 1480 3790 4520 13800 31700 31800 36800 45800
2026-04-25 03:45 11.38 28400 52000 (2008) 636 (2000) 17300 740 1480 3790 4520 13800 31700 31800 36800 45800
2026-04-25 02:45 11.41 28500 52000 (2008) 636 (2000) 17300 740 1480 3790 4520 13800 31700 31800 36800 45800
2026-04-25 01:45 11.42 28600 52000 (2008) 636 (2000) 17300 740 1480 3790 4520 13800 31700 31800 36800 45800
2026-04-25 00:45 11.44 28600 52000 (2008) 636 (2000) 17300 740 1480 3790 4520 13800 31700 31800 36800 45800
2026-04-24 23:45 11.44 28600 52000 (2008) 636 (2000) 17300 740 1480 3790 4520 13800 31700 31800 36800 45800
2026-04-24 22:45 11.47 28800 50200 (2008) 633 (2000) 16700 785 1310 3310 4410 9240 31000 32200 35400 44900
2026-04-24 21:45 11.52 29000 50200 (2008) 633 (2000) 16700 785 1310 3310 4410 9240 31000 32200 35400 44900
2026-04-24 20:45 11.54 29000 50200 (2008) 633 (2000) 16700 785 1310 3310 4410 9240 31000 32200 35400 44900
2026-04-24 19:45 11.58 29200 50200 (2008) 633 (2000) 16700 785 1310 3310 4410 9240 31000 32200 35400 44900
2026-04-24 18:45 11.63 29400 50200 (2008) 633 (2000) 16700 785 1310 3310 4410 9240 31000 32200 35400 44900
2026-04-24 17:45 11.63 29400 50200 (2008) 633 (2000) 16700 785 1310 3310 4410 9240 31000 32200 35400 44900
2026-04-24 16:45 11.72 29700 50200 (2008) 633 (2000) 16700 785 1310 3310 4410 9240 31000 32200 35400 44900
2026-04-24 15:45 11.80 30000 50200 (2008) 633 (2000) 16700 785 1310 3310 4410 9240 31000 32200 35400 44900
2026-04-24 14:45 11.87 30300 50200 (2008) 633 (2000) 16700 785 1310 3310 4410 9240 31000 32200 35400 44900
2026-04-24 13:45 11.96 30600 50200 (2008) 633 (2000) 16700 785 1310 3310 4410 9240 31000 32200 35400 44900
2026-04-24 12:45 12.07 31000 50200 (2008) 633 (2000) 16700 785 1310 3310 4410 9240 31000 32200 35400 44900
2026-04-24 11:45 12.22 31600 50200 (2008) 633 (2000) 16700 785 1310 3310 4410 9240 31000 32200 35400 44900
2026-04-24 10:45 12.36 32100 50200 (2008) 633 (2000) 16700 785 1310 3310 4410 9240 31000 32200 35400 44900
2026-04-24 09:45 12.41 32300 50200 (2008) 633 (2000) 16700 785 1310 3310 4410 9240 31000 32200 35400 44900
2026-04-24 08:45 12.57 32900 50200 (2008) 633 (2000) 16700 785 1310 3310 4410 9240 31000 32200 35400 44900
2026-04-24 07:45 12.61 33100 50200 (2008) 633 (2000) 16700 785 1310 3310 4410 9240 31000 32200 35400 44900
2026-04-24 06:45 12.67 33300 50200 (2008) 633 (2000) 16700 785 1310 3310 4410 9240 31000 32200 35400 44900
2026-04-24 05:45 12.72 33500 50200 (2008) 633 (2000) 16700 785 1310 3310 4410 9240 31000 32200 35400 44900
2026-04-24 04:45 12.70 33500 50200 (2008) 633 (2000) 16700 785 1310 3310 4410 9240 31000 32200 35400 44900
2026-04-24 03:45 12.72 33500 50200 (2008) 633 (2000) 16700 785 1310 3310 4410 9240 31000 32200 35400 44900
2026-04-24 02:45 12.69 33400 50200 (2008) 633 (2000) 16700 785 1310 3310 4410 9240 31000 32200 35400 44900
2026-04-24 01:45 12.66 33300 50200 (2008) 633 (2000) 16700 785 1310 3310 4410 9240 31000 32200 35400 44900
2026-04-24 00:45 12.70 33500 50200 (2008) 633 (2000) 16700 785 1310 3310 4410 9240 31000 32200 35400 44900
2026-04-23 23:45 12.69 33400 50200 (2008) 633 (2000) 16700 785 1310 3310 4410 9240 31000 32200 35400 44900
2026-04-23 22:45 12.67 33300 49600 (2008) 635 (2000) 16200 644 1230 3130 4020 8500 30000 32800 34900 43400
2026-04-23 21:45 12.67 33300 49600 (2008) 635 (2000) 16200 644 1230 3130 4020 8500 30000 32800 34900 43400
2026-04-23 20:45 12.70 33500 49600 (2008) 635 (2000) 16200 644 1230 3130 4020 8500 30000 32800 34900 43400
2026-04-23 19:45 12.72 33500 49600 (2008) 635 (2000) 16200 644 1230 3130 4020 8500 30000 32800 34900 43400
2026-04-23 18:45 12.74 33600 49600 (2008) 635 (2000) 16200 644 1230 3130 4020 8500 30000 32800 34900 43400
2026-04-23 17:45 12.77 33700 49600 (2008) 635 (2000) 16200 644 1230 3130 4020 8500 30000 32800 34900 43400
2026-04-23 16:45 12.79 33800 49600 (2008) 635 (2000) 16200 644 1230 3130 4020 8500 30000 32800 34900 43400
2026-04-23 15:45 12.83 34000 49600 (2008) 635 (2000) 16200 644 1230 3130 4020 8500 30000 32800 34900 43400
2026-04-23 14:45 12.84 34000 49600 (2008) 635 (2000) 16200 644 1230 3130 4020 8500 30000 32800 34900 43400
2026-04-23 13:45 12.90 34200 49600 (2008) 635 (2000) 16200 644 1230 3130 4020 8500 30000 32800 34900 43400
2026-04-23 12:45 12.92 34300 49600 (2008) 635 (2000) 16200 644 1230 3130 4020 8500 30000 32800 34900 43400
2026-04-23 11:45 12.99 34600 49600 (2008) 635 (2000) 16200 644 1230 3130 4020 8500 30000 32800 34900 43400
2026-04-23 10:45 13.02 34700 49600 (2008) 635 (2000) 16200 644 1230 3130 4020 8500 30000 32800 34900 43400
2026-04-23 09:45 13.08 35000 49600 (2008) 635 (2000) 16200 644 1230 3130 4020 8500 30000 32800 34900 43400
2026-04-23 08:45 13.11 35100 49600 (2008) 635 (2000) 16200 644 1230 3130 4020 8500 30000 32800 34900 43400
2026-04-23 07:45 13.13 35200 49600 (2008) 635 (2000) 16200 644 1230 3130 4020 8500 30000 32800 34900 43400
2026-04-23 06:45 13.18 35400 49600 (2008) 635 (2000) 16200 644 1230 3130 4020 8500 30000 32800 34900 43400
2026-04-23 05:45 13.18 35400 49600 (2008) 635 (2000) 16200 644 1230 3130 4020 8500 30000 32800 34900 43400
2026-04-23 04:45 13.23 35600 49600 (2008) 635 (2000) 16200 644 1230 3130 4020 8500 30000 32800 34900 43400
2026-04-23 03:45 13.24 35600 49600 (2008) 635 (2000) 16200 644 1230 3130 4020 8500 30000 32800 34900 43400
2026-04-23 02:45 13.22 35600 49600 (2008) 635 (2000) 16200 644 1230 3130 4020 8500 30000 32800 34900 43400
2026-04-23 01:45 13.20 35500 49600 (2008) 635 (2000) 16200 644 1230 3130 4020 8500 30000 32800 34900 43400
2026-04-23 00:45 13.24 35600 49600 (2008) 635 (2000) 16200 644 1230 3130 4020 8500 30000 32800 34900 43400
2026-04-22 23:45 13.24 35600 49600 (2008) 635 (2000) 16200 644 1230 3130 4020 8500 30000 32800 34900 43400
2026-04-22 22:45 13.21 35500 49100 (2008) 552 (2006) 16500 611 697 3440 3930 11100 31600 32400 36800 43600
2026-04-22 21:45 13.21 35500 49100 (2008) 552 (2006) 16500 611 697 3440 3930 11100 31600 32400 36800 43600
2026-04-22 20:45 13.22 35600 49100 (2008) 552 (2006) 16500 611 697 3440 3930 11100 31600 32400 36800 43600
2026-04-22 19:45 13.21 35500 49100 (2008) 552 (2006) 16500 611 697 3440 3930 11100 31600 32400 36800 43600
2026-04-22 18:45 13.23 35600 49100 (2008) 552 (2006) 16500 611 697 3440 3930 11100 31600 32400 36800 43600
2026-04-22 17:45 13.19 35400 49100 (2008) 552 (2006) 16500 611 697 3440 3930 11100 31600 32400 36800 43600
2026-04-22 16:45 13.19 35400 49100 (2008) 552 (2006) 16500 611 697 3440 3930 11100 31600 32400 36800 43600
2026-04-22 15:45 13.21 35500 49100 (2008) 552 (2006) 16500 611 697 3440 3930 11100 31600 32400 36800 43600
2026-04-22 14:45 13.19 35400 49100 (2008) 552 (2006) 16500 611 697 3440 3930 11100 31600 32400 36800 43600
2026-04-22 13:45 13.16 35300 49100 (2008) 552 (2006) 16500 611 697 3440 3930 11100 31600 32400 36800 43600
2026-04-22 12:45 13.14 35200 49100 (2008) 552 (2006) 16500 611 697 3440 3930 11100 31600 32400 36800 43600
2026-04-22 11:45 13.19 35400 49100 (2008) 552 (2006) 16500 611 697 3440 3930 11100 31600 32400 36800 43600
2026-04-22 10:45 13.17 35300 49100 (2008) 552 (2006) 16500 611 697 3440 3930 11100 31600 32400 36800 43600
2026-04-22 09:45 13.17 35300 49100 (2008) 552 (2006) 16500 611 697 3440 3930 11100 31600 32400 36800 43600
2026-04-22 08:45 13.17 35300 49100 (2008) 552 (2006) 16500 611 697 3440 3930 11100 31600 32400 36800 43600
2026-04-22 07:45 13.16 35300 49100 (2008) 552 (2006) 16500 611 697 3440 3930 11100 31600 32400 36800 43600
2026-04-22 06:45 13.15 35300 49100 (2008) 552 (2006) 16500 611 697 3440 3930 11100 31600 32400 36800 43600
2026-04-22 05:45 13.14 35200 49100 (2008) 552 (2006) 16500 611 697 3440 3930 11100 31600 32400 36800 43600
2026-04-22 04:45 13.11 35100 49100 (2008) 552 (2006) 16500 611 697 3440 3930 11100 31600 32400 36800 43600
2026-04-22 03:45 13.12 35100 49100 (2008) 552 (2006) 16500 611 697 3440 3930 11100 31600 32400 36800 43600
2026-04-22 02:45 13.07 34900 49100 (2008) 552 (2006) 16500 611 697 3440 3930 11100 31600 32400 36800 43600
2026-04-22 01:45 13.07 34900 49100 (2008) 552 (2006) 16500 611 697 3440 3930 11100 31600 32400 36800 43600
2026-04-22 00:45 13.09 35000 49100 (2008) 552 (2006) 16500 611 697 3440 3930 11100 31600 32400 36800 43600
2026-04-21 23:45 13.05 34900 49100 (2008) 552 (2006) 16500 611 697 3440 3930 11100 31600 32400 36800 43600
2026-04-21 22:45 13.04 34800 49200 (2008) 550 (2006) 17700 627 1060 3740 3980 17100 32600 33800 37900 44700
2026-04-21 21:45 13.01 34700 49200 (2008) 550 (2006) 17700 627 1060 3740 3980 17100 32600 33800 37900 44700
2026-04-21 20:45 12.99 34600 49200 (2008) 550 (2006) 17700 627 1060 3740 3980 17100 32600 33800 37900 44700
2026-04-21 19:45 12.97 34500 49200 (2008) 550 (2006) 17700 627 1060 3740 3980 17100 32600 33800 37900 44700
2026-04-21 18:45 12.94 34400 49200 (2008) 550 (2006) 17700 627 1060 3740 3980 17100 32600 33800 37900 44700
2026-04-21 17:45 12.91 34300 49200 (2008) 550 (2006) 17700 627 1060 3740 3980 17100 32600 33800 37900 44700
2026-04-21 16:45 12.91 34300 49200 (2008) 550 (2006) 17700 627 1060 3740 3980 17100 32600 33800 37900 44700
2026-04-21 15:45 12.86 34100 49200 (2008) 550 (2006) 17700 627 1060 3740 3980 17100 32600 33800 37900 44700
2026-04-21 14:45 12.86 34100 49200 (2008) 550 (2006) 17700 627 1060 3740 3980 17100 32600 33800 37900 44700
2026-04-21 13:45 12.81 33900 49200 (2008) 550 (2006) 17700 627 1060 3740 3980 17100 32600 33800 37900 44700
2026-04-21 12:45 12.85 34100 49200 (2008) 550 (2006) 17700 627 1060 3740 3980 17100 32600 33800 37900 44700
2026-04-21 11:45 12.80 33900 49200 (2008) 550 (2006) 17700 627 1060 3740 3980 17100 32600 33800 37900 44700
2026-04-21 10:45 12.78 33800 49200 (2008) 550 (2006) 17700 627 1060 3740 3980 17100 32600 33800 37900 44700
2026-04-21 09:45 12.72 33500 49200 (2008) 550 (2006) 17700 627 1060 3740 3980 17100 32600 33800 37900 44700
2026-04-21 08:45 12.67 33300 49200 (2008) 550 (2006) 17700 627 1060 3740 3980 17100 32600 33800 37900 44700
2026-04-21 07:45 12.59 33000 49200 (2008) 550 (2006) 17700 627 1060 3740 3980 17100 32600 33800 37900 44700
2026-04-21 06:45 12.49 32600 49200 (2008) 550 (2006) 17700 627 1060 3740 3980 17100 32600 33800 37900 44700
2026-04-21 05:45 12.37 32200 49200 (2008) 550 (2006) 17700 627 1060 3740 3980 17100 32600 33800 37900 44700
2026-04-21 04:45 12.27 31800 49200 (2008) 550 (2006) 17700 627 1060 3740 3980 17100 32600 33800 37900 44700
2026-04-21 03:45 12.15 31300 49200 (2008) 550 (2006) 17700 627 1060 3740 3980 17100 32600 33800 37900 44700
2026-04-21 02:45 12.02 30800 49200 (2008) 550 (2006) 17700 627 1060 3740 3980 17100 32600 33800 37900 44700
2026-04-21 01:45 11.89 30300 49200 (2008) 550 (2006) 17700 627 1060 3740 3980 17100 32600 33800 37900 44700
2026-04-21 00:45 11.75 29800 49200 (2008) 550 (2006) 17700 627 1060 3740 3980 17100 32600 33800 37900 44700
2026-04-20 23:45 11.56 29100 49200 (2008) 550 (2006) 17700 627 1060 3740 3980 17100 32600 33800 37900 44700
2026-04-20 22:45 11.44 28600 49200 (2008) 567 (2006) 17300 652 1010 3850 4320 16100 29000 31100 37800 44600
2026-04-20 21:45 11.29 28100 49200 (2008) 567 (2006) 17300 652 1010 3850 4320 16100 29000 31100 37800 44600
2026-04-20 20:45 11.12 27500 49200 (2008) 567 (2006) 17300 652 1010 3850 4320 16100 29000 31100 37800 44600
2026-04-20 19:45 10.94 26800 49200 (2008) 567 (2006) 17300 652 1010 3850 4320 16100 29000 31100 37800 44600
2026-04-20 18:45 10.76 26200 49200 (2008) 567 (2006) 17300 652 1010 3850 4320 16100 29000 31100 37800 44600
2026-04-20 17:45 10.61 25600 49200 (2008) 567 (2006) 17300 652 1010 3850 4320 16100 29000 31100 37800 44600
2026-04-20 16:45 10.49 25200 49200 (2008) 567 (2006) 17300 652 1010 3850 4320 16100 29000 31100 37800 44600
2026-04-20 15:45 10.45 25100 49200 (2008) 567 (2006) 17300 652 1010 3850 4320 16100 29000 31100 37800 44600
2026-04-20 14:45 10.45 25100 49200 (2008) 567 (2006) 17300 652 1010 3850 4320 16100 29000 31100 37800 44600
2026-04-20 13:45 10.60 25600 49200 (2008) 567 (2006) 17300 652 1010 3850 4320 16100 29000 31100 37800 44600
2026-04-20 12:45 10.78 26300 49200 (2008) 567 (2006) 17300 652 1010 3850 4320 16100 29000 31100 37800 44600
2026-04-20 11:45 11.01 27100 49200 (2008) 567 (2006) 17300 652 1010 3850 4320 16100 29000 31100 37800 44600
2026-04-20 10:45 11.29 28100 49200 (2008) 567 (2006) 17300 652 1010 3850 4320 16100 29000 31100 37800 44600
2026-04-20 09:45 11.53 29000 49200 (2008) 567 (2006) 17300 652 1010 3850 4320 16100 29000 31100 37800 44600
2026-04-20 08:45 11.75 29800 49200 (2008) 567 (2006) 17300 652 1010 3850 4320 16100 29000 31100 37800 44600
2026-04-20 07:45 11.99 30700 49200 (2008) 567 (2006) 17300 652 1010 3850 4320 16100 29000 31100 37800 44600
2026-04-20 06:45 12.16 31400 49200 (2008) 567 (2006) 17300 652 1010 3850 4320 16100 29000 31100 37800 44600
2026-04-20 05:45 12.28 31800 49200 (2008) 567 (2006) 17300 652 1010 3850 4320 16100 29000 31100 37800 44600
2026-04-20 04:45 12.37 32200 49200 (2008) 567 (2006) 17300 652 1010 3850 4320 16100 29000 31100 37800 44600
2026-04-20 03:45 12.36 32100 49200 (2008) 567 (2006) 17300 652 1010 3850 4320 16100 29000 31100 37800 44600
2026-04-20 02:45 12.40 32300 49200 (2008) 567 (2006) 17300 652 1010 3850 4320 16100 29000 31100 37800 44600
2026-04-20 01:45 12.39 32300 49200 (2008) 567 (2006) 17300 652 1010 3850 4320 16100 29000 31100 37800 44600
2026-04-20 00:45 12.42 32400 49200 (2008) 567 (2006) 17300 652 1010 3850 4320 16100 29000 31100 37800 44600
2026-04-19 23:45 12.45 32500 49200 (2008) 567 (2006) 17300 652 1010 3850 4320 16100 29000 31100 37800 44600
2026-04-19 22:45 12.55 32900 49100 (2008) 593 (2006) 16600 719 955 4060 4280 11400 28000 31200 34400 44200
2026-04-19 21:45 12.66 33300 49100 (2008) 593 (2006) 16600 719 955 4060 4280 11400 28000 31200 34400 44200
2026-04-19 20:45 12.78 33800 49100 (2008) 593 (2006) 16600 719 955 4060 4280 11400 28000 31200 34400 44200
2026-04-19 19:45 12.90 34200 49100 (2008) 593 (2006) 16600 719 955 4060 4280 11400 28000 31200 34400 44200
2026-04-19 18:45 13.05 34900 49100 (2008) 593 (2006) 16600 719 955 4060 4280 11400 28000 31200 34400 44200
2026-04-19 17:45 13.16 35300 49100 (2008) 593 (2006) 16600 719 955 4060 4280 11400 28000 31200 34400 44200
2026-04-19 16:45 13.36 36100 49100 (2008) 593 (2006) 16600 719 955 4060 4280 11400 28000 31200 34400 44200
2026-04-19 15:45 13.56 36900 49100 (2008) 593 (2006) 16600 719 955 4060 4280 11400 28000 31200 34400 44200
2026-04-19 14:45 13.78 37800 49100 (2008) 593 (2006) 16600 719 955 4060 4280 11400 28000 31200 34400 44200
2026-04-19 13:45 14.00 38800 49100 (2008) 593 (2006) 16600 719 955 4060 4280 11400 28000 31200 34400 44200
2026-04-19 12:45 14.19 39500 49100 (2008) 593 (2006) 16600 719 955 4060 4280 11400 28000 31200 34400 44200
2026-04-19 11:45 14.34 40200 49100 (2008) 593 (2006) 16600 719 955 4060 4280 11400 28000 31200 34400 44200
2026-04-19 10:45 14.47 40800 49100 (2008) 593 (2006) 16600 719 955 4060 4280 11400 28000 31200 34400 44200
2026-04-19 09:45 14.57 41200 49100 (2008) 593 (2006) 16600 719 955 4060 4280 11400 28000 31200 34400 44200
2026-04-19 08:45 14.63 41400 49100 (2008) 593 (2006) 16600 719 955 4060 4280 11400 28000 31200 34400 44200
2026-04-19 07:45 14.78 42100 49100 (2008) 593 (2006) 16600 719 955 4060 4280 11400 28000 31200 34400 44200
2026-04-19 06:45 14.85 42400 49100 (2008) 593 (2006) 16600 719 955 4060 4280 11400 28000 31200 34400 44200
2026-04-19 05:45 14.99 43000 49100 (2008) 593 (2006) 16600 719 955 4060 4280 11400 28000 31200 34400 44200
2026-04-19 04:45 15.14 43700 49100 (2008) 593 (2006) 16600 719 955 4060 4280 11400 28000 31200 34400 44200
2026-04-19 03:45 15.25 44200 49100 (2008) 593 (2006) 16600 719 955 4060 4280 11400 28000 31200 34400 44200
2026-04-19 02:45 15.39 44700 49100 (2008) 593 (2006) 16600 719 955 4060 4280 11400 28000 31200 34400 44200
2026-04-19 01:45 15.53 45400 49100 (2008) 593 (2006) 16600 719 955 4060 4280 11400 28000 31200 34400 44200
2026-04-19 00:45 15.57 45600 49100 (2008) 593 (2006) 16600 719 955 4060 4280 11400 28000 31200 34400 44200
2026-04-18 23:45 15.66 46000 49100 (2008) 593 (2006) 16600 719 955 4060 4280 11400 28000 31200 34400 44200
2026-04-18 22:45 15.72 46300 48900 (2008) 586 (2006) 16500 943 2440 3860 4030 9650 29800 32100 39100 46000
2026-04-18 21:45 15.78 46500 48900 (2008) 586 (2006) 16500 943 2440 3860 4030 9650 29800 32100 39100 46000
2026-04-18 20:45 15.88 47000 48900 (2008) 586 (2006) 16500 943 2440 3860 4030 9650 29800 32100 39100 46000
2026-04-18 19:45 15.94 47200 48900 (2008) 586 (2006) 16500 943 2440 3860 4030 9650 29800 32100 39100 46000
2026-04-18 18:45 16.03 47700 48900 (2008) 586 (2006) 16500 943 2440 3860 4030 9650 29800 32100 39100 46000
2026-04-18 17:45 16.08 47900 48900 (2008) 586 (2006) 16500 943 2440 3860 4030 9650 29800 32100 39100 46000
2026-04-18 16:45 16.13 48100 48900 (2008) 586 (2006) 16500 943 2440 3860 4030 9650 29800 32100 39100 46000
2026-04-18 15:45 16.15 48200 48900 (2008) 586 (2006) 16500 943 2440 3860 4030 9650 29800 32100 39100 46000
2026-04-18 14:45 16.12 48100 48900 (2008) 586 (2006) 16500 943 2440 3860 4030 9650 29800 32100 39100 46000
2026-04-18 13:45 16.05 47800 48900 (2008) 586 (2006) 16500 943 2440 3860 4030 9650 29800 32100 39100 46000
2026-04-18 12:45 16.04 47700 48900 (2008) 586 (2006) 16500 943 2440 3860 4030 9650 29800 32100 39100 46000
2026-04-18 11:45 15.94 47200 48900 (2008) 586 (2006) 16500 943 2440 3860 4030 9650 29800 32100 39100 46000
2026-04-18 10:45 15.80 46600 48900 (2008) 586 (2006) 16500 943 2440 3860 4030 9650 29800 32100 39100 46000
2026-04-18 09:45 15.64 45900 48900 (2008) 586 (2006) 16500 943 2440 3860 4030 9650 29800 32100 39100 46000
2026-04-18 08:45 15.45 45000 48900 (2008) 586 (2006) 16500 943 2440 3860 4030 9650 29800 32100 39100 46000
2026-04-18 07:45 15.20 43900 48900 (2008) 586 (2006) 16500 943 2440 3860 4030 9650 29800 32100 39100 46000
2026-04-18 06:45 14.92 42700 48900 (2008) 586 (2006) 16500 943 2440 3860 4030 9650 29800 32100 39100 46000
2026-04-18 05:45 14.54 41000 48900 (2008) 586 (2006) 16500 943 2440 3860 4030 9650 29800 32100 39100 46000
2026-04-18 04:45 14.15 39400 48900 (2008) 586 (2006) 16500 943 2440 3860 4030 9650 29800 32100 39100 46000
2026-04-18 03:45 13.71 37500 48900 (2008) 586 (2006) 16500 943 2440 3860 4030 9650 29800 32100 39100 46000
2026-04-18 02:45 13.27 35800 48900 (2008) 586 (2006) 16500 943 2440 3860 4030 9650 29800 32100 39100 46000
2026-04-18 01:45 12.93 34400 48900 (2008) 586 (2006) 16500 943 2440 3860 4030 9650 29800 32100 39100 46000
2026-04-18 00:45 12.75 33700 48900 (2008) 586 (2006) 16500 943 2440 3860 4030 9650 29800 32100 39100 46000
2026-04-17 23:45 12.63 33200 48900 (2008) 586 (2006) 16500 943 2440 3860 4030 9650 29800 32100 39100 46000
2026-04-17 22:45 12.56 32900 48700 (2008) 587 (2006) 15900 763 1670 3880 4070 9950 28200 30100 36800 43400
2026-04-17 21:45 12.50 32700 48700 (2008) 587 (2006) 15900 763 1670 3880 4070 9950 28200 30100 36800 43400
2026-04-17 20:45 12.48 32600 48700 (2008) 587 (2006) 15900 763 1670 3880 4070 9950 28200 30100 36800 43400
2026-04-17 19:45 12.40 32300 48700 (2008) 587 (2006) 15900 763 1670 3880 4070 9950 28200 30100 36800 43400
2026-04-17 18:45 12.38 32200 48700 (2008) 587 (2006) 15900 763 1670 3880 4070 9950 28200 30100 36800 43400
2026-04-17 17:45 12.38 32200 48700 (2008) 587 (2006) 15900 763 1670 3880 4070 9950 28200 30100 36800 43400
2026-04-17 16:45 12.40 32300 48700 (2008) 587 (2006) 15900 763 1670 3880 4070 9950 28200 30100 36800 43400
2026-04-17 15:45 12.42 32400 48700 (2008) 587 (2006) 15900 763 1670 3880 4070 9950 28200 30100 36800 43400
2026-04-17 14:45 12.44 32500 48700 (2008) 587 (2006) 15900 763 1670 3880 4070 9950 28200 30100 36800 43400
2026-04-17 13:45 12.50 32700 48700 (2008) 587 (2006) 15900 763 1670 3880 4070 9950 28200 30100 36800 43400
2026-04-17 12:45 12.52 32700 48700 (2008) 587 (2006) 15900 763 1670 3880 4070 9950 28200 30100 36800 43400
2026-04-17 11:45 12.56 32900 48700 (2008) 587 (2006) 15900 763 1670 3880 4070 9950 28200 30100 36800 43400
2026-04-17 10:45 12.62 33100 48700 (2008) 587 (2006) 15900 763 1670 3880 4070 9950 28200 30100 36800 43400
2026-04-17 09:45 12.63 33200 48700 (2008) 587 (2006) 15900 763 1670 3880 4070 9950 28200 30100 36800 43400
2026-04-17 08:45 12.65 33300 48700 (2008) 587 (2006) 15900 763 1670 3880 4070 9950 28200 30100 36800 43400
2026-04-17 07:45 12.69 33400 48700 (2008) 587 (2006) 15900 763 1670 3880 4070 9950 28200 30100 36800 43400
2026-04-17 06:45 12.63 33200 48700 (2008) 587 (2006) 15900 763 1670 3880 4070 9950 28200 30100 36800 43400
2026-04-17 05:45 12.57 32900 48700 (2008) 587 (2006) 15900 763 1670 3880 4070 9950 28200 30100 36800 43400
2026-04-17 04:45 12.50 32700 48700 (2008) 587 (2006) 15900 763 1670 3880 4070 9950 28200 30100 36800 43400
2026-04-17 03:45 12.36 32100 48700 (2008) 587 (2006) 15900 763 1670 3880 4070 9950 28200 30100 36800 43400
2026-04-17 02:45 12.23 31600 48700 (2008) 587 (2006) 15900 763 1670 3880 4070 9950 28200 30100 36800 43400
2026-04-17 01:45 12.05 31000 48700 (2008) 587 (2006) 15900 763 1670 3880 4070 9950 28200 30100 36800 43400
2026-04-17 00:45 11.86 30200 48700 (2008) 587 (2006) 15900 763 1670 3880 4070 9950 28200 30100 36800 43400
2026-04-16 23:45 11.66 29400 48700 (2008) 587 (2006) 15900 763 1670 3880 4070 9950 28200 30100 36800 43400
2026-04-16 22:45 11.46 28700 48200 (2008) 601 (2006) 15700 785 1050 4530 4880 8170 28300 29500 37700 44500
2026-04-16 21:45 11.25 27900 48200 (2008) 601 (2006) 15700 785 1050 4530 4880 8170 28300 29500 37700 44500
2026-04-16 20:45 10.95 26800 48200 (2008) 601 (2006) 15700 785 1050 4530 4880 8170 28300 29500 37700 44500
2026-04-16 19:45 10.66 25800 48200 (2008) 601 (2006) 15700 785 1050 4530 4880 8170 28300 29500 37700 44500
2026-04-16 18:45 10.44 25000 48200 (2008) 601 (2006) 15700 785 1050 4530 4880 8170 28300 29500 37700 44500
2026-04-16 17:45 10.17 24100 48200 (2008) 601 (2006) 15700 785 1050 4530 4880 8170 28300 29500 37700 44500
2026-04-16 16:45 9.91 23200 48200 (2008) 601 (2006) 15700 785 1050 4530 4880 8170 28300 29500 37700 44500
2026-04-16 15:45 9.66 22400 48200 (2008) 601 (2006) 15700 785 1050 4530 4880 8170 28300 29500 37700 44500
2026-04-16 14:45 9.38 21300 48200 (2008) 601 (2006) 15700 785 1050 4530 4880 8170 28300 29500 37700 44500
2026-04-16 13:45 9.18 20600 48200 (2008) 601 (2006) 15700 785 1050 4530 4880 8170 28300 29500 37700 44500
2026-04-16 12:45 9.01 19900 48200 (2008) 601 (2006) 15700 785 1050 4530 4880 8170 28300 29500 37700 44500
2026-04-16 11:45 8.89 19400 48200 (2008) 601 (2006) 15700 785 1050 4530 4880 8170 28300 29500 37700 44500
2026-04-16 10:45 8.80 19000 48200 (2008) 601 (2006) 15700 785 1050 4530 4880 8170 28300 29500 37700 44500
2026-04-16 09:45 8.75 18800 48200 (2008) 601 (2006) 15700 785 1050 4530 4880 8170 28300 29500 37700 44500
2026-04-16 08:45 8.72 18700 48200 (2008) 601 (2006) 15700 785 1050 4530 4880 8170 28300 29500 37700 44500
2026-04-16 07:45 8.68 18600 48200 (2008) 601 (2006) 15700 785 1050 4530 4880 8170 28300 29500 37700 44500
2026-04-16 06:45 8.64 18400 48200 (2008) 601 (2006) 15700 785 1050 4530 4880 8170 28300 29500 37700 44500
2026-04-16 05:45 8.56 18100 48200 (2008) 601 (2006) 15700 785 1050 4530 4880 8170 28300 29500 37700 44500
2026-04-16 04:45 8.44 17700 48200 (2008) 601 (2006) 15700 785 1050 4530 4880 8170 28300 29500 37700 44500
2026-04-16 03:45 8.30 17200 48200 (2008) 601 (2006) 15700 785 1050 4530 4880 8170 28300 29500 37700 44500
2026-04-16 02:45 8.21 16900 48200 (2008) 601 (2006) 15700 785 1050 4530 4880 8170 28300 29500 37700 44500
2026-04-16 01:45 8.13 16600 48200 (2008) 601 (2006) 15700 785 1050 4530 4880 8170 28300 29500 37700 44500
2026-04-16 00:45 8.09 16500 48200 (2008) 601 (2006) 15700 785 1050 4530 4880 8170 28300 29500 37700 44500
2026-04-15 23:45 8.04 16300 48200 (2008) 601 (2006) 15700 785 1050 4530 4880 8170 28300 29500 37700 44500
2026-04-15 22:45 8.03 16300 42900 (2008) 597 (2006) 15700 681 1220 3960 4910 13400 26200 29400 34500 39800
2026-04-15 21:45 8.09 16500 42900 (2008) 597 (2006) 15700 681 1220 3960 4910 13400 26200 29400 34500 39800
2026-04-15 20:45 8.17 16800 42900 (2008) 597 (2006) 15700 681 1220 3960 4910 13400 26200 29400 34500 39800
2026-04-15 19:45 8.26 17100 42900 (2008) 597 (2006) 15700 681 1220 3960 4910 13400 26200 29400 34500 39800
2026-04-15 18:45 8.37 17500 42900 (2008) 597 (2006) 15700 681 1220 3960 4910 13400 26200 29400 34500 39800
2026-04-15 17:45 8.50 17900 42900 (2008) 597 (2006) 15700 681 1220 3960 4910 13400 26200 29400 34500 39800
2026-04-15 16:45 8.61 18300 42900 (2008) 597 (2006) 15700 681 1220 3960 4910 13400 26200 29400 34500 39800
2026-04-15 15:45 8.72 18700 42900 (2008) 597 (2006) 15700 681 1220 3960 4910 13400 26200 29400 34500 39800
2026-04-15 14:45 8.79 19000 42900 (2008) 597 (2006) 15700 681 1220 3960 4910 13400 26200 29400 34500 39800
2026-04-15 13:45 8.89 19400 42900 (2008) 597 (2006) 15700 681 1220 3960 4910 13400 26200 29400 34500 39800
2026-04-15 12:45 9.01 19900 42900 (2008) 597 (2006) 15700 681 1220 3960 4910 13400 26200 29400 34500 39800
2026-04-15 11:45 9.14 20400 42900 (2008) 597 (2006) 15700 681 1220 3960 4910 13400 26200 29400 34500 39800
2026-04-15 10:45 9.28 20900 42900 (2008) 597 (2006) 15700 681 1220 3960 4910 13400 26200 29400 34500 39800
2026-04-15 09:45 9.43 21500 42900 (2008) 597 (2006) 15700 681 1220 3960 4910 13400 26200 29400 34500 39800
2026-04-15 08:45 9.57 22100 42900 (2008) 597 (2006) 15700 681 1220 3960 4910 13400 26200 29400 34500 39800
2026-04-15 07:45 9.70 22500 42900 (2008) 597 (2006) 15700 681 1220 3960 4910 13400 26200 29400 34500 39800
2026-04-15 06:45 9.80 22900 42900 (2008) 597 (2006) 15700 681 1220 3960 4910 13400 26200 29400 34500 39800
2026-04-15 05:45 9.85 23000 42900 (2008) 597 (2006) 15700 681 1220 3960 4910 13400 26200 29400 34500 39800
2026-04-15 04:45 9.84 23000 42900 (2008) 597 (2006) 15700 681 1220 3960 4910 13400 26200 29400 34500 39800
2026-04-15 03:45 9.86 23100 42900 (2008) 597 (2006) 15700 681 1220 3960 4910 13400 26200 29400 34500 39800
2026-04-15 02:45 9.85 23000 42900 (2008) 597 (2006) 15700 681 1220 3960 4910 13400 26200 29400 34500 39800
2026-04-15 01:45 9.84 23000 42900 (2008) 597 (2006) 15700 681 1220 3960 4910 13400 26200 29400 34500 39800
2026-04-15 00:45 9.83 23000 42900 (2008) 597 (2006) 15700 681 1220 3960 4910 13400 26200 29400 34500 39800
2026-04-14 23:45 9.79 22800 42900 (2008) 597 (2006) 15700 681 1220 3960 4910 13400 26200 29400 34500 39800
2026-04-14 22:45 9.81 22900 36500 (2021) 606 (2006) 15200 696 990 3450 4510 12500 26700 28300 33500 35400
2026-04-14 21:45 9.81 22900 36500 (2021) 606 (2006) 15200 696 990 3450 4510 12500 26700 28300 33500 35400
2026-04-14 20:45 9.83 23000 36500 (2021) 606 (2006) 15200 696 990 3450 4510 12500 26700 28300 33500 35400
2026-04-14 19:45 9.84 23000 36500 (2021) 606 (2006) 15200 696 990 3450 4510 12500 26700 28300 33500 35400
2026-04-14 18:45 9.82 22900 36500 (2021) 606 (2006) 15200 696 990 3450 4510 12500 26700 28300 33500 35400
2026-04-14 17:45 9.84 23000 36500 (2021) 606 (2006) 15200 696 990 3450 4510 12500 26700 28300 33500 35400
2026-04-14 16:45 9.80 22900 36500 (2021) 606 (2006) 15200 696 990 3450 4510 12500 26700 28300 33500 35400
2026-04-14 15:45 9.81 22900 36500 (2021) 606 (2006) 15200 696 990 3450 4510 12500 26700 28300 33500 35400
2026-04-14 14:45 9.82 22900 36500 (2021) 606 (2006) 15200 696 990 3450 4510 12500 26700 28300 33500 35400
2026-04-14 13:45 9.85 23000 36500 (2021) 606 (2006) 15200 696 990 3450 4510 12500 26700 28300 33500 35400
2026-04-14 12:45 9.89 23200 36500 (2021) 606 (2006) 15200 696 990 3450 4510 12500 26700 28300 33500 35400
2026-04-14 11:45 9.93 23300 36500 (2021) 606 (2006) 15200 696 990 3450 4510 12500 26700 28300 33500 35400
2026-04-14 09:45 10.05 23700 36500 (2021) 606 (2006) 15200 696 990 3450 4510 12500 26700 28300 33500 35400
2026-04-14 08:45 10.11 23900 36500 (2021) 606 (2006) 15200 696 990 3450 4510 12500 26700 28300 33500 35400
2026-04-14 07:45 10.16 24100 36500 (2021) 606 (2006) 15200 696 990 3450 4510 12500 26700 28300 33500 35400
2026-04-14 06:45 10.18 24100 36500 (2021) 606 (2006) 15200 696 990 3450 4510 12500 26700 28300 33500 35400
2026-04-14 05:45 10.17 24100 36500 (2021) 606 (2006) 15200 696 990 3450 4510 12500 26700 28300 33500 35400
2026-04-14 04:45 10.16 24100 36500 (2021) 606 (2006) 15200 696 990 3450 4510 12500 26700 28300 33500 35400
2026-04-14 03:45 10.12 23900 36500 (2021) 606 (2006) 15200 696 990 3450 4510 12500 26700 28300 33500 35400
2026-04-14 02:45 10.01 23600 36500 (2021) 606 (2006) 15200 696 990 3450 4510 12500 26700 28300 33500 35400
2026-04-14 01:45 9.94 23300 36500 (2021) 606 (2006) 15200 696 990 3450 4510 12500 26700 28300 33500 35400
2026-04-14 00:45 9.76 22700 36500 (2021) 606 (2006) 15200 696 990 3450 4510 12500 26700 28300 33500 35400
2026-04-13 23:45 9.63 22300 36500 (2021) 606 (2006) 15200 696 990 3450 4510 12500 26700 28300 33500 35400
2026-04-13 22:45 9.43 21500 40500 (2021) 607 (2006) 14400 869 1200 3900 4280 10500 24900 27700 34000 37900
2026-04-13 21:45 9.27 20900 40500 (2021) 607 (2006) 14400 869 1200 3900 4280 10500 24900 27700 34000 37900
2026-04-13 20:45 9.07 20100 40500 (2021) 607 (2006) 14400 869 1200 3900 4280 10500 24900 27700 34000 37900
2026-04-13 19:45 8.94 19600 40500 (2021) 607 (2006) 14400 869 1200 3900 4280 10500 24900 27700 34000 37900
2026-04-13 18:45 8.82 19100 40500 (2021) 607 (2006) 14400 869 1200 3900 4280 10500 24900 27700 34000 37900
2026-04-13 17:45 8.68 18600 40500 (2021) 607 (2006) 14400 869 1200 3900 4280 10500 24900 27700 34000 37900
2026-04-13 16:45 8.58 18200 40500 (2021) 607 (2006) 14400 869 1200 3900 4280 10500 24900 27700 34000 37900
2026-04-13 15:45 8.45 17700 40500 (2021) 607 (2006) 14400 869 1200 3900 4280 10500 24900 27700 34000 37900
2026-04-13 14:45 8.31 17300 40500 (2021) 607 (2006) 14400 869 1200 3900 4280 10500 24900 27700 34000 37900
2026-04-13 13:45 8.17 16800 40500 (2021) 607 (2006) 14400 869 1200 3900 4280 10500 24900 27700 34000 37900
2026-04-13 12:45 8.05 16400 40500 (2021) 607 (2006) 14400 869 1200 3900 4280 10500 24900 27700 34000 37900
2026-04-13 11:45 7.96 16000 40500 (2021) 607 (2006) 14400 869 1200 3900 4280 10500 24900 27700 34000 37900
2026-04-13 10:45 7.90 15800 40500 (2021) 607 (2006) 14400 869 1200 3900 4280 10500 24900 27700 34000 37900
2026-04-13 09:45 7.90 15800 40500 (2021) 607 (2006) 14400 869 1200 3900 4280 10500 24900 27700 34000 37900
2026-04-13 08:45 7.93 15900 40500 (2021) 607 (2006) 14400 869 1200 3900 4280 10500 24900 27700 34000 37900
2026-04-13 07:45 7.95 16000 40500 (2021) 607 (2006) 14400 869 1200 3900 4280 10500 24900 27700 34000 37900
2026-04-13 06:45 7.99 16100 40500 (2021) 607 (2006) 14400 869 1200 3900 4280 10500 24900 27700 34000 37900
2026-04-13 05:45 8.02 16200 40500 (2021) 607 (2006) 14400 869 1200 3900 4280 10500 24900 27700 34000 37900
2026-04-13 04:45 8.07 16400 40500 (2021) 607 (2006) 14400 869 1200 3900 4280 10500 24900 27700 34000 37900
2026-04-13 03:45 8.11 16600 40500 (2021) 607 (2006) 14400 869 1200 3900 4280 10500 24900 27700 34000 37900
2026-04-13 02:45 8.14 16700 40500 (2021) 607 (2006) 14400 869 1200 3900 4280 10500 24900 27700 34000 37900
2026-04-13 01:45 8.22 16900 40500 (2021) 607 (2006) 14400 869 1200 3900 4280 10500 24900 27700 34000 37900
2026-04-13 00:45 8.26 17100 40500 (2021) 607 (2006) 14400 869 1200 3900 4280 10500 24900 27700 34000 37900
2026-04-12 23:45 8.32 17300 40500 (2021) 607 (2006) 14400 869 1200 3900 4280 10500 24900 27700 34000 37900
2026-04-12 22:45 8.39 17500 40700 (2021) 616 (2006) 15200 1100 2740 4440 5190 11600 26500 30500 33800 38500
2026-04-12 21:45 8.47 17800 40700 (2021) 616 (2006) 15200 1100 2740 4440 5190 11600 26500 30500 33800 38500
2026-04-12 20:45 8.53 18000 40700 (2021) 616 (2006) 15200 1100 2740 4440 5190 11600 26500 30500 33800 38500
2026-04-12 19:45 8.60 18300 40700 (2021) 616 (2006) 15200 1100 2740 4440 5190 11600 26500 30500 33800 38500
2026-04-12 18:45 8.67 18500 40700 (2021) 616 (2006) 15200 1100 2740 4440 5190 11600 26500 30500 33800 38500
2026-04-12 17:45 8.73 18800 40700 (2021) 616 (2006) 15200 1100 2740 4440 5190 11600 26500 30500 33800 38500
2026-04-12 16:45 8.77 18900 40700 (2021) 616 (2006) 15200 1100 2740 4440 5190 11600 26500 30500 33800 38500
2026-04-12 15:45 8.80 19000 40700 (2021) 616 (2006) 15200 1100 2740 4440 5190 11600 26500 30500 33800 38500
2026-04-12 14:45 8.81 19100 40700 (2021) 616 (2006) 15200 1100 2740 4440 5190 11600 26500 30500 33800 38500
2026-04-12 13:45 8.81 19100 40700 (2021) 616 (2006) 15200 1100 2740 4440 5190 11600 26500 30500 33800 38500
2026-04-12 12:45 8.80 19000 40700 (2021) 616 (2006) 15200 1100 2740 4440 5190 11600 26500 30500 33800 38500
2026-04-12 11:45 8.77 18900 40700 (2021) 616 (2006) 15200 1100 2740 4440 5190 11600 26500 30500 33800 38500
2026-04-12 10:45 8.72 18700 40700 (2021) 616 (2006) 15200 1100 2740 4440 5190 11600 26500 30500 33800 38500
2026-04-12 09:45 8.72 18700 40700 (2021) 616 (2006) 15200 1100 2740 4440 5190 11600 26500 30500 33800 38500
2026-04-12 08:45 8.68 18600 40700 (2021) 616 (2006) 15200 1100 2740 4440 5190 11600 26500 30500 33800 38500
2026-04-12 07:45 8.64 18400 40700 (2021) 616 (2006) 15200 1100 2740 4440 5190 11600 26500 30500 33800 38500
2026-04-12 06:45 8.60 18300 40700 (2021) 616 (2006) 15200 1100 2740 4440 5190 11600 26500 30500 33800 38500
2026-04-12 05:45 8.55 18100 40700 (2021) 616 (2006) 15200 1100 2740 4440 5190 11600 26500 30500 33800 38500
2026-04-12 04:45 8.49 17900 40700 (2021) 616 (2006) 15200 1100 2740 4440 5190 11600 26500 30500 33800 38500
2026-04-12 03:45 8.42 17600 40700 (2021) 616 (2006) 15200 1100 2740 4440 5190 11600 26500 30500 33800 38500
2026-04-12 02:45 8.38 17500 40700 (2021) 616 (2006) 15200 1100 2740 4440 5190 11600 26500 30500 33800 38500
2026-04-12 01:45 8.30 17200 40700 (2021) 616 (2006) 15200 1100 2740 4440 5190 11600 26500 30500 33800 38500
2026-04-12 00:45 8.23 17000 40700 (2021) 616 (2006) 15200 1100 2740 4440 5190 11600 26500 30500 33800 38500
2026-04-11 23:45 8.14 16700 40700 (2021) 616 (2006) 15200 1100 2740 4440 5190 11600 26500 30500 33800 38500
2026-04-11 22:45 8.03 16300 57800 (2008) 641 (2006) 16000 1200 3570 5070 6280 8210 28100 31500 38300 50700
2026-04-11 21:45 7.95 16000 57800 (2008) 641 (2006) 16000 1200 3570 5070 6280 8210 28100 31500 38300 50700
2026-04-11 20:45 7.85 15700 57800 (2008) 641 (2006) 16000 1200 3570 5070 6280 8210 28100 31500 38300 50700
2026-04-11 19:45 7.76 15400 57800 (2008) 641 (2006) 16000 1200 3570 5070 6280 8210 28100 31500 38300 50700
2026-04-11 18:45 7.69 15100 57800 (2008) 641 (2006) 16000 1200 3570 5070 6280 8210 28100 31500 38300 50700
2026-04-11 17:45 7.63 14900 57800 (2008) 641 (2006) 16000 1200 3570 5070 6280 8210 28100 31500 38300 50700
2026-04-11 16:45 7.62 14900 57800 (2008) 641 (2006) 16000 1200 3570 5070 6280 8210 28100 31500 38300 50700
2026-04-11 15:45 7.64 15000 57800 (2008) 641 (2006) 16000 1200 3570 5070 6280 8210 28100 31500 38300 50700
2026-04-11 14:45 7.70 15200 57800 (2008) 641 (2006) 16000 1200 3570 5070 6280 8210 28100 31500 38300 50700
2026-04-11 13:45 7.77 15400 57800 (2008) 641 (2006) 16000 1200 3570 5070 6280 8210 28100 31500 38300 50700
2026-04-11 12:45 7.86 15700 57800 (2008) 641 (2006) 16000 1200 3570 5070 6280 8210 28100 31500 38300 50700
2026-04-11 11:45 7.98 16100 57800 (2008) 641 (2006) 16000 1200 3570 5070 6280 8210 28100 31500 38300 50700
2026-04-11 10:45 8.05 16400 57800 (2008) 641 (2006) 16000 1200 3570 5070 6280 8210 28100 31500 38300 50700
2026-04-11 09:45 8.12 16600 57800 (2008) 641 (2006) 16000 1200 3570 5070 6280 8210 28100 31500 38300 50700
2026-04-11 08:45 8.19 16800 57800 (2008) 641 (2006) 16000 1200 3570 5070 6280 8210 28100 31500 38300 50700
2026-04-11 07:45 8.22 16900 57800 (2008) 641 (2006) 16000 1200 3570 5070 6280 8210 28100 31500 38300 50700
2026-04-11 06:45 8.20 16900 57800 (2008) 641 (2006) 16000 1200 3570 5070 6280 8210 28100 31500 38300 50700
2026-04-11 05:45 8.17 16800 57800 (2008) 641 (2006) 16000 1200 3570 5070 6280 8210 28100 31500 38300 50700
2026-04-11 04:45 8.12 16600 57800 (2008) 641 (2006) 16000 1200 3570 5070 6280 8210 28100 31500 38300 50700
2026-04-11 03:45 8.09 16500 57800 (2008) 641 (2006) 16000 1200 3570 5070 6280 8210 28100 31500 38300 50700
2026-04-11 02:45 8.09 16500 57800 (2008) 641 (2006) 16000 1200 3570 5070 6280 8210 28100 31500 38300 50700
2026-04-11 01:45 8.17 16800 57800 (2008) 641 (2006) 16000 1200 3570 5070 6280 8210 28100 31500 38300 50700
2026-04-11 00:45 8.30 17200 57800 (2008) 641 (2006) 16000 1200 3570 5070 6280 8210 28100 31500 38300 50700
2026-04-10 23:45 8.46 17800 57800 (2008) 641 (2006) 16000 1200 3570 5070 6280 8210 28100 31500 38300 50700
2026-04-10 22:45 8.64 18400 51000 (2008) 653 (2006) 15900 693 1460 4990 6130 9550 28500 32200 34800 46700
2026-04-10 21:45 8.86 19300 51000 (2008) 653 (2006) 15900 693 1460 4990 6130 9550 28500 32200 34800 46700
2026-04-10 20:45 9.06 20100 51000 (2008) 653 (2006) 15900 693 1460 4990 6130 9550 28500 32200 34800 46700
2026-04-10 19:45 9.29 21000 51000 (2008) 653 (2006) 15900 693 1460 4990 6130 9550 28500 32200 34800 46700
2026-04-10 18:45 9.49 21800 51000 (2008) 653 (2006) 15900 693 1460 4990 6130 9550 28500 32200 34800 46700
2026-04-10 17:45 9.72 22600 51000 (2008) 653 (2006) 15900 693 1460 4990 6130 9550 28500 32200 34800 46700
2026-04-10 16:45 9.90 23200 51000 (2008) 653 (2006) 15900 693 1460 4990 6130 9550 28500 32200 34800 46700
2026-04-10 15:45 10.07 23800 51000 (2008) 653 (2006) 15900 693 1460 4990 6130 9550 28500 32200 34800 46700
2026-04-10 14:45 10.24 24400 51000 (2008) 653 (2006) 15900 693 1460 4990 6130 9550 28500 32200 34800 46700
2026-04-10 13:45 10.40 24900 51000 (2008) 653 (2006) 15900 693 1460 4990 6130 9550 28500 32200 34800 46700
2026-04-10 12:45 10.51 25300 51000 (2008) 653 (2006) 15900 693 1460 4990 6130 9550 28500 32200 34800 46700
2026-04-10 11:45 10.69 25900 51000 (2008) 653 (2006) 15900 693 1460 4990 6130 9550 28500 32200 34800 46700
2026-04-10 10:45 10.87 26600 51000 (2008) 653 (2006) 15900 693 1460 4990 6130 9550 28500 32200 34800 46700
2026-04-10 09:45 11.03 27100 51000 (2008) 653 (2006) 15900 693 1460 4990 6130 9550 28500 32200 34800 46700
2026-04-10 08:45 11.27 28000 51000 (2008) 653 (2006) 15900 693 1460 4990 6130 9550 28500 32200 34800 46700
2026-04-10 07:45 11.47 28800 51000 (2008) 653 (2006) 15900 693 1460 4990 6130 9550 28500 32200 34800 46700
2026-04-10 06:45 11.59 29200 51000 (2008) 653 (2006) 15900 693 1460 4990 6130 9550 28500 32200 34800 46700
2026-04-10 05:45 11.68 29500 51000 (2008) 653 (2006) 15900 693 1460 4990 6130 9550 28500 32200 34800 46700
2026-04-10 04:45 11.67 29500 51000 (2008) 653 (2006) 15900 693 1460 4990 6130 9550 28500 32200 34800 46700
2026-04-10 03:45 11.54 29000 51000 (2008) 653 (2006) 15900 693 1460 4990 6130 9550 28500 32200 34800 46700
2026-04-10 02:45 11.42 28600 51000 (2008) 653 (2006) 15900 693 1460 4990 6130 9550 28500 32200 34800 46700
2026-04-10 01:45 11.20 27800 51000 (2008) 653 (2006) 15900 693 1460 4990 6130 9550 28500 32200 34800 46700
2026-04-10 00:45 11.05 27200 51000 (2008) 653 (2006) 15900 693 1460 4990 6130 9550 28500 32200 34800 46700
2026-04-09 23:45 10.90 26700 51000 (2008) 653 (2006) 15900 693 1460 4990 6130 9550 28500 32200 34800 46700

A total of 729 rows are displayed for years 1997 through 2025.